GS Le Panche Castelquarto

Associazione Sportiva Dilettantistica

2016-10-09_Pisa_Half_Marathon.xlsx Download


pos. sexpett.COGNOMENOMETEAMnazsexcatpos catpos asstempodistacco M/F
11RONOJULIUS KIPNGETICHATL. RECANATIkenMASSM111:08:00
216TERRASIALESSIOA.S. DIL. FIAMMA ROSSA PALERMOitaMASSM221:08:32+33
34MARHNAOUITARIKROMATLETICA FOOTWORKSmarMASSM331:10:34+2:34
43KIPLIMONOOR KIPLANGATE.SERVIZI ATL. FUTURA ROMAitaMASSM441:10:41+2:41
523GILETTALEONARDOA.S.D.PODISTICA VALLE VARAITAitaMASSM551:10:46+2:46
621SOLAVAGGIONEMANUELA.S.D.PODISTICA VALLE VARAITAitaMASSM661:12:01+4:01
7668FIESOLIDAVIDERUNCARDitaMASSM771:13:37+5:37
8356POLITISTEFANOATL.PIETRASANTA VERSILIAitaMASSM881:14:12+6:13
9856ARRIGHIREMOASD LA GALLA PONTEDERA ATL.itaMASSM991:14:15+6:15
10802RICCISTEFANOA.S. ATL. VINCIitaMASSM10101:14:21+6:21
11800ALBERTIANDREAA.S. ATL. VINCIitaMASSM11111:14:27+6:27
12465BARONTINIGIACOMOSEMPRE DI CORSA TEAM TESTIitaMASSM12121:14:40+6:40
1310GYABAAHGEORGEASD TRACK & FIELD MASTER GROSSkenMASSM13131:14:55+6:55
14372MEINIFEDERICOATLETICA LIVORNOitaMASSM14141:15:05+7:05
15337LA BANCADOMENICOATLETICA 2005itaMASSM15151:15:56+7:56
1615BONACCHIMARCOTOSCANA ATLETICA FUTURAitaMASSM16161:16:08+8:08
11001CHEBITOKRUTHATHLETIC TERNIkenFASSF1171:16:09
17636TAOSSZAKARIAA.S.D. MARATONA MUGELLOitaMASSM17181:16:18+8:19
18492PALLINIMARCORUNCARDitaMASSM18191:17:13+9:13
19799BERTUCCELLIVITTORIOATLETICA MASSA CARRARAitaMASSM19201:17:17+9:17
20870MARTINIMARCOASD LA GALLA PONTEDERA ATL.itaMASSM20211:17:24+9:24
2114CHECCACCILORENZOG.P. PARCO ALPI APUANEitaMASSM21221:17:34+9:34
22736PARDINIRICCARDOPISA ROAD RUNNERS CLUB ASDitaMASSM22231:17:47+9:47
23902LOCONTEVITOA.S. ATL SPRINT BARLETTAitaMASSM23241:18:05+10:05
24520COPPARILUCAATL. JESIitaMASSM24251:18:10+10:11
25550MARCOTULLIOALESSANDROATLETICA DEI GELSIitaMASSM25261:18:20+10:20
26551QUAGLIAROTTICLAUDIOATLETICA DEI GELSIitaMASSM26271:19:00+11:00
2712BERARDIFRANCESCOG.P.D. FANO CORRE L.TONELLIitaMVETM1281:19:01+11:01
2822GALVAGNORAULA.S.D.PODISTICA VALLE VARAITAitaMASSM27291:19:09+11:09
29423NOTTOLINICLAUDIOUISP ABBADIA SAN SALVATOREitaMVETM2301:19:29+11:29
301273LO REFRANCOISASD ATLETICA PRATOitaMASSM28311:19:47+11:47
31738PERRIFRANCESCOPISA ROAD RUNNERS CLUB ASDitaMASSM29321:19:50+11:50
32321BRUSCHIGIACOMORUNCARDitaMASSM30331:20:33+12:33
33801GENTILIDANIELEA.S. ATL. VINCIitaMASSM31341:20:43+12:43
34761CANAVESEMASSIMOPISA ROAD RUNNERS CLUB ASDitaMASSM32351:20:44+12:45
3511LASORSASAVINOA.S. POD. AMATORI POLICOROitaMASSM33361:20:57+12:57
36613CAPPE'SERGIOGRUPPO PODISTICO ROSSINIitaMASSM34371:20:59+13:00
37835COMINALEELPIDIOLIVORNO TEAM RUNNINGitaMASSM35381:21:01+13:01
38831TASSONEDANIELELIVORNO TEAM RUNNINGitaMASSM36391:21:07+13:07
39873PASSUELLODOMENICOASD LA GALLA PONTEDERA ATL.itaMASSM37401:21:14+13:14
40675BIONDINIMAURIZIOATL. AVIS CASTEL S.PIETROitaMASSM38411:21:36+13:36
41403BERNARDINIMARCELLOG.P. PARCO ALPI APUANEitaMVETM3421:21:41+13:41
42882PENGOLUCAG.S. PIEVE A RIPOLIitaMVETM4431:21:47+13:47
43864DEL VIGNAANDREAASD LA GALLA PONTEDERA ATL.itaMASSM39441:21:54+13:54
21003CAVALLINIDENISEG.S. LAMMARIitaFASSF2451:22:02+5:53
44862COSTAGLISTEFANOASD LA GALLA PONTEDERA ATL.itaMVETM5461:22:17+14:18
45874PORCIANIGIORGIOASD LA GALLA PONTEDERA ATL.itaMVETM6471:22:23+14:23
4659ANGELOGIOVANNIASD. SALINARUNNERSitaMASSM40481:22:26+14:26
47143SPANO'PIETROG. S. DILET. 'LA VOLATA'itaMVETM7491:22:33+14:33
48246CASUGIAMMARCOPOLISPORTIVA RUNNERS ORISTANOitaMASSM41501:22:36+14:36
49879TOMMASINIANDREAASD LA GALLA PONTEDERA ATL.itaMASSM42511:22:40+14:40
50511BACCIOTTINITHOMASATLETICA ISOLA D'ELBAitaMASSM43521:22:47+14:47
51367BENCIVENNILEONARDOATLETICA FUTURA A.S.D.itaMASSM44531:22:50+14:50
52536MASCIAROBERTOLIVORNO TEAM RUNNINGitaMASSM45541:22:51+14:51
53207TONIJONATHANG.S. ORECCHIELLA GARFAGNANAitaMASSM46551:22:54+14:54
54742SAVINOVALERIOPISA ROAD RUNNERS CLUB ASDitaMASSM47561:23:17+15:17
55290GIANNONIALBERTOATL.PIETRASANTA VERSILIAitaMASSM48571:23:19+15:19
56198FIORIFABRIZIOATLETICA OZIERIitaMASSM49581:23:20+15:20
57760CALEOMIRCOPISA ROAD RUNNERS CLUB ASDitaMVETM8591:23:22+15:22
58867FROIOGIUSEPPEASD LA GALLA PONTEDERA ATL.itaMASSM50601:23:25+15:25
59342MINUTICARLOLIVORNO TEAM RUNNINGitaMASSM51611:23:25+15:25
60442FAZZIPAOLOASD VALDISERCHIO RUNNING TEAMitaMASSM52621:23:27+15:27
611271MELANIALESSIOASD ATLETICA PRATOitaMVETM9631:23:27+15:27
62310TURCILUIGIUISP ABBADIA SAN SALVATOREitaMASSM53641:23:31+15:31
63232SCARABEOCARLORUNCARDitaMASSM54651:23:35+15:35
31130BERTOLOTTIELENAATL. CASTELLOitaFASSF3661:23:36+7:27
64384SPINELLILAMBERTORUNCARDitaMASSM55671:23:53+15:53
65678PATERNIALESSANDROG.S. ORECCHIELLA GARFAGNANAitaMASSM56681:23:59+15:59
66109CARVELLIANTONIOG.S. INTERFORZE TORINOitaMASSM57691:24:11+16:11
67535DONATISIMONEA.S.D. GOLFO DEI POETI ARCIGNIitaMASSM58701:24:13+16:13
68302CHINELLICRISTIANG.P. CODOGNO 82itaMASSM59711:24:20+16:20
6982PERRETOLIVIERFOULEES ROQUEBRUNOISESfraMASSM60721:24:43+16:43
70510CECCONIRICCARDOA.S.C.D. SILVANO FEDIitaMVETM10731:24:44+16:44
71388BORETTIEDOARDORUNCARDitaMASSM61741:24:47+16:47
72837LENZIMASSIMOLIVORNO TEAM RUNNINGitaMVETM11751:24:50+16:51
73674BUCHIGNANIGIULIOA.S.D. SEVENTIES RUNNING TEAM LUCCAitaMVETM12761:24:58+16:58
74950BARTELLONIFRANCOSTRACARRARAitaMVETM13771:25:15+17:15
75922MARTELLIALESSIOASD ATLETICA PRATOitaMASSM62781:25:17+17:18
41142GALLORINICHIARAASD TRACK & FIELD MASTER GROSSitaFASSF4791:25:20+9:12
7685VANNISIMONERUNCARDitaMASSM63801:25:21+17:21
77495MENNAMANUELASD PODISTICA 2007 TORTRETESTEitaMASSM64811:25:21+17:21
78468CALFAPIETRAGIORGIOSEMPRE DI CORSA TEAM TESTIitaMASSM65821:25:22+17:22
79480POLISANDROSEMPRE DI CORSA TEAM TESTIitaMASSM66831:25:24+17:24
80744SOLANOANTONIOPISA ROAD RUNNERS CLUB ASDitaMASSM67841:25:30+17:30
81220BEVILACQUARAFFAELLOG.S. ORECCHIELLA GARFAGNANAitaMASSM68851:25:35+17:36
82560BENASSIDAVIDERUNCARDitaMASSM69861:25:45+17:45
83839MORELLIFABRIZIOLIVORNO TEAM RUNNINGitaMASSM70871:26:01+18:01
84213MASTRINISIMONERUNCARDitaMASSM71881:26:16+18:16
85921BATIALESSANDROASD ATLETICA PRATOitaMASSM72891:26:34+18:34
86458CARPITAANDREAATLETICA CASCINAitaMASSM73901:26:34+18:34
51106GIACHICHIARAATLETICA 2005itaFASSF5911:26:42+10:34
8731MARSIROBERTOASD MARATHON CLUB PISAitaMASSM74921:26:47+18:47
88954GERILORENZOG.S. MAIANOitaMASSM75931:26:48+18:49
89115MARIANIALESSANDROASD LUCCA MARATHONitaMASSM76941:26:52+18:53
90723BUSCIOLANOSANDRORUNCARDitaMASSM77951:26:57+18:57
91592ZACCHIAMASSIMILIANOPOD.OSPEDALIERI PISAitaMASSM78961:27:00+19:00
92830PITOIAPIETROTOMMASO ASSI TRANIitaMASSM79971:27:06+19:06
93151BAUDAZZIGIACOMOASD SPECTEC DUFERCO CARISPEZIAitaMASSM80981:27:26+19:26
94884ZINGONINICOLAPALESTRA EQUINOX SRLitaMVETM14991:27:29+19:29
95368AMATOGIUSEPPEPOL. RINASCITA MONTEVARCHIitaMASSM811001:27:31+19:31
969PATALANIANTONIOPOD.OSPEDALIERI PISAitaMASSM821011:27:39+19:39
97773FRASSIFILIPPOPISA ROAD RUNNERS CLUB ASDitaMASSM831021:27:48+19:48
98445PACCAGNINIMAURORUNCARDitaMASSM841031:27:50+19:50
99944PUCCETTIGIORGIOitaMVETM151041:27:51+19:51
100187IUDICEGIOVANNIASD MARATHON CLUB PISAitaMASSM851051:27:54+19:54
101324CIACCIOGIACOMO LUCAA.S.D. RUNNERS SULMONAitaMASSM861061:28:00+20:00
102583IANETTROBERTOPOD.OSPEDALIERI PISAitaMASSM871071:28:11+20:11
103869MANNARIGIONATAASD LA GALLA PONTEDERA ATL.itaMASSM881081:28:12+20:12
104686BRUTTINIPAOLORUNCARDitaMVETM161091:28:24+20:24
105886TOLAINIMASSIMILIANORUNCARDitaMASSM891101:28:32+20:32
106506DADDIGRAZIANOASD TRACK & FIELD MASTER GROSSitaMVETM171111:28:33+20:33
107706GIANSANTEANTONIOG. POD. LE SBARREitaMVETM181121:28:34+20:35
108354BIAGILUCAATL.PIETRASANTA VERSILIAitaMASSM901131:28:35+20:35
61227MARZICLAUDIAG.S. LAMMARIitaFLAD-A11141:28:38+12:29
10944FANANIMICHELANGELORUNCARDitaMASSM911151:28:41+20:41
11095LEOMAURIZIOATL. LAMBRO MILANOitaMASSM921161:28:50+20:50
111896BARTALUCCIGABRIELEATL. CASTELLOitaMASSM931171:29:03+21:04
112269BACIGALUPOCHRISTIANMARATONETI GENOVESIitaMASSM941181:29:10+21:10
11393MATERAANGELO MASSIMOG.S. DILETT. 5 TORRI TRAPANIitaMASSM951191:29:10+21:11
114197DOTTIMASSIMILIANOA.S.C.D. SILVANO FEDIitaMASSM961201:29:11+21:11
1151270DURANTEEMIDIOASD ATLETICA PRATOitaMVETM191211:29:13+21:13
116621GABBANINILUCAGRUPPO PODISTICO ROSSINIitaMASSM971221:29:17+21:17
117942GALANTINIFILIPPORUNCARDitaMASSM981231:29:19+21:19
118524POGGETTIDANIELERUNCARDitaMASSM991241:29:20+21:21
119461RIDOLFIMIRCOWORLD RUNNING ACADEMYitaMASSM1001251:29:25+21:25
120292DERIDAVIDEATL.PIETRASANTA VERSILIAitaMASSM1011261:29:25+21:25
121584INFORTUGNOMARCOPOD.OSPEDALIERI PISAitaMASSM1021271:29:29+21:30
122218INGROSSOMAUROGPDMitaMASSM1031281:29:35+21:35
123102BOLDRINIMIRKOPOLISPORTIVA VALDERAitaMASSM1041291:29:41+21:42
124296PRETEMAUROATL. AMATORI CORIGLIANOitaMASSM1051301:29:44+21:44
125957GABBANIMASSIMORUNCARDitaMASSM1061311:29:48+21:48
126631ADORNIMAURIZIOATL. ARCI FAVAROitaMVETM201321:29:49+21:49
127463BIAGIOTTIFEDERICOGRUPPO MARCIATORI BARGAitaMASSM1071331:29:52+21:53
128851ANGUISSOLAPAOLORUNCARDitaMASSM1081341:29:55+21:55
129501CICERALEANDREAASD TRACK & FIELD MASTER GROSSitaMASSM1091351:29:56+21:57
13071ROMBOLA'PASQUALEG.S. DILETT. 5 TORRI TRAPANIitaMASSM1101361:29:57+21:57
131555MACUCCISAVERIORUNCARDitaMASSM1111371:30:01+22:01
132810CUPOLOROCCOG.S. PIEVE A RIPOLIitaMVETM211381:30:01+22:02
133811D'ANDREADANIELEASD LA GALLA PONTEDERA ATL.itaMASSM1121391:30:01+22:02
134812DURANORICCARDOG.P. PARCO ALPI APUANEitaMASSM1131401:30:02+22:02
135895MARTELLIMARCOATL. CASTELLOitaMVETM221411:30:02+22:02
136645ZERINIDANIELEVERSILIA SPORTitaMASSM1141421:30:11+22:11
137272PEZZONILORENZOYOUNG RUNNINGitaMASSM1151431:30:11+22:11
13865SOAVEFABIOLBM SPORT TEAMitaMASSM1161441:30:15+22:15
139189MARCOLINIGIANLUCAASD MARATHON CLUB PISAitaMASSM1171451:30:25+22:25
140399ROSSIROBERTORUNCARDitaMASSM1181461:30:27+22:27
141424CONTIMATTIARUNCARDitaMASSM1191471:30:28+22:29
142559DE MARIAMAURIZIOPOD.OSPEDALIERI PISAitaMVETM231481:30:30+22:30
143843BARONCINIRICCARDOLIVORNO TEAM RUNNINGitaMVETM241491:30:31+22:31
144475MOTRONIPATRIZIOSEMPRE DI CORSA TEAM TESTIitaMASSM1201501:30:34+22:34
145489LA MARCAMARCELLORUNCARDitaMASSM1211511:30:37+22:37
146682PREITIGIANFRANCOMILETO MARATHONitaMASSM1221521:30:40+22:40
147790SANTUCCILUCAG.P.ARCOBALENOitaMVETM251531:30:41+22:41
148117ROSSIKOSTIAATLETICA PALZOLAitaMASSM1231541:30:49+22:49
149289GRIGOLIFABIOADMO PEPERONCINO RUNNINGitaMVETM261551:31:12+23:12
150775GIGLIAANDREAPISA ROAD RUNNERS CLUB ASDitaMVETM271561:31:22+23:22
151448PISCITELLOMARCORUNCARDitaMASSM1241571:31:29+23:29
152905STOCCHETTIALBERTOG.S. TOCCALMATTOitaMASSM1251581:31:33+23:33
153904SICURIFILIPPOATLETICA MANARAitaMASSM1261591:31:33+23:33
15487D'APUZZOANDREARUNCARDitaMASSM1271601:31:34+23:34
155385FRANCESCHINIGINOG.S. ORECCHIELLA GARFAGNANAitaMASSM1281611:31:38+23:38
71004SOHNMAJIDAEA.S.D. MARATONA MUGELLOjpnFASSF61621:31:41+15:33
156395QUINODONPASCALRUNCARDitaMASSM1291631:31:45+23:45
157160MACALUSOCARMELORUNCARDitaMASSM1301641:31:46+23:47
158844CIVITAFULVIOLIVORNO TEAM RUNNINGitaMVETM281651:31:47+23:47
159469CAROTIROBERTOSEMPRE DI CORSA TEAM TESTIitaMASSM1311661:31:47+23:48
16063LOMBARDIMASSIMILIANOPODISTICA QUARRATA A.S.D.itaMASSM1321671:31:50+23:50
161598LIVONIMAURIZIOGRUPPO PODISTICO ROSSINIitaMVETM291681:31:51+23:51
162361PERRAANTONIOPOD AMATORI OLBIAitaMVETM301691:31:52+23:52
163185MENEGHINIADRIANOVENEZIA RUNNERS ATL.MURANOitaMVETM311701:31:56+23:56
164467BERNINIANDREASEMPRE DI CORSA TEAM TESTIitaMASSM1331711:31:58+23:58
165301PINTOANTONIO ROSARIOCORRERE E' SALUTE MOTTOLAitaMASSM1341721:32:00+24:00
166733MONDELLOGIOVANNIPISA ROAD RUNNERS CLUB ASDitaMASSM1351731:32:01+24:01
167168BAZZIGIACOMORUNCARDitaMASSM1361741:32:05+24:05
168190ROSSIFRANCESCORUNCARDitaMASSM1371751:32:07+24:07
16962ATTUCCIARMANDOPODISTICA QUARRATA A.S.D.itaMASSM1381761:32:08+24:08
170866FELICIFABRIZIOASD LA GALLA PONTEDERA ATL.itaMVETM321771:32:12+24:12
171803DRAGONIBRUNORUNCARDitaMASSM1391781:32:19+24:19
17274BULUGGIUANTONELLORUNCARDitaMVETM331791:32:22+24:22
173669GORETTIVALERIORUNCARDitaMASSM1401801:32:25+24:26
17473FANALISIMONEPOD. MISERICORDIA AGLIANESE 19itaMASSM1411811:32:28+24:28
175404MANZANIFILIPPORUNCARDitaMASSM1421821:32:32+24:32
176878TESTIRENE'ASD LA GALLA PONTEDERA ATL.itaMASSM1431831:32:33+24:34
177575SIMONINIPIER ANGELOPOL. ARCI UISP VENTURINAitaMASSM1441841:32:34+24:35
178439MAGLIOTOMMASOASD MONTEMILETTO TEAM RUNNERSitaMASSM1451851:32:36+24:36
179394BERTOLIMATTEORUNCARDitaMASSM1461861:32:42+24:42
180378MARESCALCHILUCARUNCARDitaMVETM341871:32:48+24:48
81118MUNICCHIMARCELLAATLETICA 2005itaFASSF71881:32:54+16:46
181546COLOMBINIGIACOMORUNCARDitaMASSM1471891:32:59+24:59
182789BARONTINIRICCARDOATLETICA CASCINAitaMASSM1481901:32:59+24:59
183528MARCHINIMICHELERUNCARDitaMASSM1491911:33:00+25:00
184415CARLUCCIGIACOMOIL GREGGE RIBELLEitaMASSM1501921:33:03+25:03
185610BURCHIELLIGIANLUCAGRUPPO PODISTICO ROSSINIitaMVETM351931:33:04+25:04
186457CANNONIMIRKOG.S.FILIPPIDEitaMASSM1511941:33:09+25:09
187635GIORGININAZZARENOA.S. ATL. VINCIitaMARGM11951:33:11+25:11
188351REYESANGEL JRRUNCARDphiMASSM1521961:33:13+25:14
18933BACCHIGIUSEPPEGRUPPO PODISTICO LUZZARESEitaMASSM1531971:33:14+25:14
190969BATTILANIDANIELEA.S.D. GOLFO DEI POETI ARCIGNIitaMASSM1541981:33:20+25:21
191639COCCHIDAVIDEA.S.D. GOLFO DEI POETI ARCIGNIitaMASSM1551991:33:21+25:21
192936BONAMIGOMARCOitaMASSM1562001:33:25+25:25
193909TERRONEANTONIORUNCARDitaMASSM1572011:33:28+25:28
194159LIBONEVINCENZORUNCARDitaMASSM1582021:33:31+25:32
195164ANGELONIGIOVANNIIL GREGGE RIBELLEitaMASSM1592031:33:33+25:33
196558BERTONCINIMICHELEASD PODISTICA EMPOLESE 1986itaMARGM22041:33:34+25:35
19772ANGIUSGIUSEPPEG.S. DILETT. 5 TORRI TRAPANIitaMASSM1602051:33:36+25:36
198247FARINASTEFANOG.S. DILETT. 5 TORRI TRAPANIitaMVETM362061:33:36+25:36
199241BANDINILEONARDORUNCARDitaMASSM1612071:33:37+25:37
200371POLITINICOLAATLETICA RIVELLINO PIOMBINOitaMASSM1622081:33:39+25:39
201261GRASSIGABRIELERUNCARDitaMASSM1632091:33:40+25:41
202245ABBARCHIRAFFAELLOG.S. ORECCHIELLA GARFAGNANAitaMASSM1642101:33:43+25:43
203199ALBANOANTONIORUNCARDitaMASSM1652111:33:43+25:43
204471LURIDIANAPIETROSEMPRE DI CORSA TEAM TESTIitaMVETM372121:33:43+25:43
205166PORRELLOVINCENZORUNCARDitaMASSM1662131:33:45+25:46
206892BULLERIMAURIZIOASD LA GALLA PONTEDERA ATL.itaMASSM1672141:33:48+25:48
207585MELISANDREAPOD.OSPEDALIERI PISAitaMVETM382151:33:50+25:50
208374CIANINICOLAWORLD RUNNING ACADEMYitaMASSM1682161:33:56+25:57
209123CECCHELLIGIANCARLOSOC. ATL. VOLTERRAitaMVETM392171:33:57+25:57
210577LIZZANIALESSANDROGRUPPO CITTA' DI GENOVAitaMASSM1692181:33:58+25:58
211134CAROVANIDAMIANORUNCARDitaMASSM1702191:33:58+25:58
212796CASADIOSTEFANORUNCARDitaMVETM402201:33:58+25:59
91141COPPISTEFANIAASD TRACK & FIELD MASTER GROSSitaFASSF82211:33:59+17:50
213840PELLEGRINIALESSANDROLIVORNO TEAM RUNNINGitaMASSM1712221:33:59+25:59
214413CHITIGIOVANNIRUNCARDitaMASSM1722231:34:06+26:07
215509MURADAMIAN FERNANDORUNCARDitaMASSM1732241:34:08+26:08
216695NELLILUCAASD LUCCA MARATHONitaMASSM1742251:34:11+26:11
217211BECHISTEFANORUNCARDitaMASSM1752261:34:16+26:17
218721FIDANZIFEDERICOATLETICA RIVELLINO PIOMBINOitaMASSM1762271:34:19+26:19
219257PISCHEDDASALVATOREATLETICA OZIERIitaMASSM1772281:34:20+26:20
220108ARGIRO'ALFREDOG.S. INTERFORZE TORINOitaMASSM1782291:34:21+26:21
221925VIGLIATUROGIANNIRUNCARDitaMASSM1792301:34:26+26:26
222357MORISTEFANOATL.PIETRASANTA VERSILIAitaMASSM1802311:34:28+26:28
223293MUTTIMARIOATL.PIETRASANTA VERSILIAitaMVETM412321:34:28+26:29
224698RIBERIGIOVANNI BATTISTARUNCARDitaMVETM422331:34:31+26:31
225502PENNESTRIVINCENZOASD TRACK & FIELD MASTER GROSSitaMASSM1812341:34:32+26:32
226253VAGNARELLIANDREAATL. AMAT. AVIS CASTELFIDARDOitaMASSM1822351:34:37+26:37
227352PUZELLASALVATORERUNCARDitaMASSM1832361:34:40+26:40
228854MARSIGLIFABIORUNCARDitaMASSM1842371:34:43+26:43
229161MONTAGHIMASSIMORUNCARDitaMVETM432381:34:44+26:44
101135MUZIALESSANDRASEMPRE DI CORSA TEAM TESTIitaFASSF92391:34:44+18:36
230411QUERCIAMARCORUNCARDitaMASSM1852401:34:45+26:45
231142DETTORIFRANCESCOASD PODISTICA EMPOLESE 1986itaMARGM32411:34:47+26:48
232690PASSEGGIAGIANVINCENZOA.S.D. GOLFO DEI POETI ARCIGNIitaMASSM1862421:34:48+26:48
233221BELLUCCIMATTEOATL. RIMINI NORD SANTARCANGELOitaMASSM1872431:34:49+26:49
23466VENNERIGIANCARLOA.S. AMATORI VILLA PAMPHILIitaMASSM1882441:34:50+26:50
235291LANZANOVATHOMASATL.PIETRASANTA VERSILIAitaMASSM1892451:34:50+26:51
236712MURASILVIOG. POD. LE SBARREitaMASSM1902461:34:51+26:51
23734SIMONCINIALESSANDRORUNCARDitaMASSM1912471:34:53+26:53
238814TOMMASIGIOVANNIRUNCARDitaMASSM1922481:34:53+26:53
239816GIUSTILEONARDOG.S. LE PANCHE CASTELQUARTOitaMASSM1932491:34:53+26:53
240813FLORESELUIGIRUNCARDitaMASSM1942501:34:53+26:54
241815PAZZELLILORENZORUNCARDitaMASSM1952511:34:54+26:54
242913ELEZISAIMIRG.S. LE PANCHE CASTELQUARTOitaMASSM1962521:34:54+26:54
243136ANGELINIANDREAG.P.A. SAN MARINOitaMASSM1972531:34:55+26:55
24489VITIMARZIOATL.PESCIAitaMASSM1982541:34:58+26:58
245264PALADININICOLAA.S.D. MARCIATORI ANTRACCOLIitaMASSM1992551:34:59+26:59
24684FILIPPELLIGIUSEPPEDRAGONEROitaMARGM42561:35:04+27:04
247446ROSAMICHELEATLETICA FUTURA A.S.D.itaMASSM2002571:35:04+27:04
248877TERRENIGIONATAASD LA GALLA PONTEDERA ATL.itaMASSM2012581:35:05+27:05
249784GUARNACCIRICCARDOATLETICA CASCINAitaMASSM2022591:35:08+27:08
250833MARCACCIANDREALIVORNO TEAM RUNNINGitaMVETM442601:35:12+27:12
251345BUCCOLIERIFEDERICOA.S.D. GOLFO DEI POETI ARCIGNIitaMASSM2032611:35:12+27:13
252853ANDREUCCIALESSANDROG.P. PARCO ALPI APUANEitaMASSM2042621:35:14+27:14
253303CONTINIMAURIZIORUNCARDitaMVETM452631:35:17+27:17
254256PECORARITOMMASOPODISTICA CASTELFRANCHESEitaMASSM2052641:35:18+27:18
255947TALLARICOFRANCESCORUNCARDitaMASSM2062651:35:19+27:19
256745SORRENTIALBERTOPISA ROAD RUNNERS CLUB ASDitaMASSM2072661:35:22+27:22
257671NERELLIPAOLOCOOP SPORTIVA DIL. YMCAitaMASSM2082671:35:26+27:26
258125BARBONIDANIELERUNCARDitaMASSM2092681:35:29+27:29
25996PEDONESISTEFANOA.S.D. MARCIATORI ANTRACCOLIitaMASSM2102691:35:32+27:32
260460PASEROMARCORUNCARDitaMVETM462701:35:35+27:35
261968MARLIAFABRIZIOASD LUCCA MARATHONitaMVETM472711:35:38+27:38
262887MAZZONISTEFANOGS MELE MARCEitaMASSM2112721:35:43+27:44
263785RASPIMAURIZIOATLETICA CASCINAitaMVETM482731:35:44+27:44
264443CAGETTIDAVIDEATLETICA MASSA CARRARAitaMASSM2122741:35:44+27:44
265503ANGELIROBERTOASD TRACK & FIELD MASTER GROSSitaMASSM2132751:35:49+27:49
266254TICCASERGIOATLETICA OZIERIitaMASSM2142761:35:49+27:50
267938RAMAGINIGIUSEPPEWORLD RUNNING ACADEMYitaMASSM2152771:35:50+27:50
268540BARNABEICARLORUNCARDitaMVETM492781:35:52+27:52
111111RAFFAETA'MELANIAG.S. ORECCHIELLA GARFAGNANAitaFASSF102791:35:53+19:44
269386MORICONIPAOLOA. ATL. CAMAIOREitaMVETM502801:35:53+27:53
270607CALAMAIGABRIELEGRUPPO PODISTICO ROSSINIitaMASSM2162811:35:58+27:58
27178PICCOLOLORENZOA.S.D. ESCAPE TEAM VIGEVANOitaMASSM2172821:36:01+28:01
272260LUNAERRICOATLETICA PERIGNANOitaMASSM2182831:36:01+28:02
273778GUIGGIMARCOPISA ROAD RUNNERS CLUB ASDitaMASSM2192841:36:10+28:10
274167CHIFENTIANDREARUNCARDitaMASSM2202851:36:12+28:12
275284ONILLONROMAINFOULEES ROQUEBRUNOISESfraMASSM2212861:36:14+28:14
276858BARSALISTEFANOASD LA GALLA PONTEDERA ATL.itaMASSM2222871:36:19+28:19
121134TAMENIVERONICAG.S. LE PANCHE CASTELQUARTOitaFASSF112881:36:26+20:17
277554CAPOCCIMAUROLBM SPORT TEAMitaMASSM2232891:36:27+28:27
278788DE LAURENTISDAVIDEATLETICA CASCINAitaMASSM2242901:36:27+28:28
279704RUSSOSIMONERUNCARDitaMASSM2252911:36:29+28:30
280709AZZAROTOMMASOG. POD. LE SBARREitaMASSM2262921:36:36+28:36
281582CRISTIANOSOSSIOPOD.OSPEDALIERI PISAitaMASSM2272931:36:36+28:37
282875RUSCIOGIUSEPPEASD LA GALLA PONTEDERA ATL.itaMASSM2282941:36:37+28:37
283179BALZICESAREA.S.D. GOLFO DEI POETI ARCIGNIitaMASSM2292951:36:38+28:38
284865DEL VIGNALUCAASD LA GALLA PONTEDERA ATL.itaMASSM2302961:36:39+28:39
285139BASTIJANCICFABRIZIOASD LUCCA MARATHONitaMASSM2312971:36:43+28:43
286101WOLOWSKILECHA.S. AMATORI VILLA PAMPHILIpolMASSM2322981:36:46+28:46
287127CONTILUCAASD POLISPORTIVA DLF ASTIitaMASSM2332991:36:49+28:50
288672BARBARITOMARIOG.S.R. FERRERO A.S.D.itaMVETM513001:36:53+28:53
289135GIARIGIUSEPPERUNCARDitaMASSM2343011:36:58+28:58
290730MATTEUCCINICOLAPISA ROAD RUNNERS CLUB ASDitaMASSM2353021:36:59+28:59
291118LUCCHESIALDOPOD.OSPEDALIERI PISAitaMARGM53031:37:00+29:00
292249MAZZESCHIANDREARUNCARDitaMASSM2363041:37:00+29:01
293659TADDEIALESSIORUNCARDitaMASSM2373051:37:01+29:02
294881BOZZIMASSIMILIANORUNCARDitaMASSM2383061:37:16+29:16
295268DI LECCESTEFANORUNCARDitaMASSM2393071:37:19+29:19
296222ERCOLEROBERTOASD ATLETICA ABRUZZO L'AQUILAitaMASSM2403081:37:21+29:21
297841LOCCIMARIO DAVIDELIVORNO TEAM RUNNINGitaMVETM523091:37:22+29:22
298782CHIELLINIMAURIZIOATLETICA CASCINAitaMARGM63101:37:23+29:23
131228DEL CESTACAROLINAATLETICA CASCINAitaFASSF123111:37:23+21:14
299429ANDREUCCINICOLAG.P. PARCO ALPI APUANEitaMVETM533121:37:23+29:23
141172FABBRIZZILARARUNCARDitaFASSF133131:37:24+21:15
300693DAL LAGOLUDMILLOG.P. PARCO ALPI APUANEitaMVETM543141:37:24+29:24
301593BACCILEANDROPOD.OSPEDALIERI PISAitaMASSM2413151:37:30+29:30
302842SPADONIFRANCESCOLIVORNO TEAM RUNNINGitaMASSM2423161:37:35+29:35
151257DI BIAGIAGNESEG. POD. LE SBARREitaFASSF143171:37:38+21:29
303793SODANODOMENICOATLETICA CASCINAitaMASSM2433181:37:38+29:38
304753VANNIMATTEOPISA ROAD RUNNERS CLUB ASDitaMASSM2443191:37:49+29:49
305470EATONMARKSEMPRE DI CORSA TEAM TESTIitaMVETM553201:37:57+29:57
306906DORIDINOA.S.D. CANOTTIERI TICINOitaMVETM563211:38:01+30:01
307872ORSIFEDERICOASD LA GALLA PONTEDERA ATL.itaMASSM2453221:38:03+30:03
308838BARDIFABIOLIVORNO TEAM RUNNINGitaMVETM573231:38:06+30:06
309454MIRABELLAROBERTOSPEZIA MARATHON DLFitaMVETM583241:38:07+30:07
310719DONDOLIFRANCESCORUNCARDitaMASSM2463251:38:09+30:09
311780AGRUSTIVINCENZOATLETICA CASCINAitaMASSM2473261:38:13+30:13
312148SCARDIGLIFILIPPORUNCARDitaMASSM2483271:38:17+30:18
313165COGILLIANTONELLOASD LUCCA MARATHONitaMASSM2493281:38:20+30:20
314763CARFIDAVIDEPISA ROAD RUNNERS CLUB ASDitaMASSM2503291:38:21+30:21
315677VOLPEGUIDOVERSILIA SPORTitaMVETM593301:38:22+30:22
316665BARONILEONARDORUNCARDitaMASSM2513311:38:26+30:26
317692CARNESECCHIMASSIMILIANORUNCARDitaMASSM2523321:38:27+30:28
318120BERTUCCELLIANGELOASD LUCCA MARATHONitaMASSM2533331:38:37+30:37
319488MUSCOLINOEMANUELEA.S.D. MARATHON CLUB TAORMINAitaMASSM2543341:38:39+30:39
320358GIANNINIRICCARDOATL.PIETRASANTA VERSILIAitaMARGM73351:38:41+30:41
321273VOLONNINOANTONIOALZAIA NAVIGLIO RUNNERSitaMASSM2553361:38:44+30:44
322242IORIROBERTORUNCARDitaMASSM2563371:38:45+30:46
323576MONTAGNANIFEDERICORUNCARDitaMASSM2573381:38:46+30:46
324209CAVAZZINICCOLÒRUNCARDitaMASSM2583391:38:47+30:47
325244UMBROMAURORUNCARDitaMASSM2593401:38:47+30:47
326350PALLONEANNUNZIATORUNCARDitaMASSM2603411:38:49+30:49
327739ROGNINIMASSIMOPISA ROAD RUNNERS CLUB ASDitaMVETM603421:38:53+30:53
328279BAMONTEMARIOA.S.D. ATL. LIB. AGROPOLIitaMASSM2613431:39:03+31:03
329596GADDINIPAOLOGRUPPO PODISTICO ROSSINIitaMASSM2623441:39:03+31:04
330633LORINIFABRIZIOG.S. LE PANCHE CASTELQUARTOitaMVETM613451:39:04+31:04
331600GUIDIMASSIMILIANOGRUPPO PODISTICO ROSSINIitaMASSM2633461:39:05+31:05
332771FIOREMARCOPISA ROAD RUNNERS CLUB ASDitaMASSM2643471:39:05+31:05
333910VALACCHISIMONERUNCARDitaMVETM623481:39:11+31:11
334505BAIANOBENEDETTOASD TRACK & FIELD MASTER GROSSitaMVETM633491:39:14+31:14
335581CHECCOLITIZIANOPOD.OSPEDALIERI PISAitaMASSM2653501:39:15+31:16
336653SAMBUCHIEMANUELERUNCARDitaMASSM2663511:39:18+31:18
337696CASENTINISTEFANORUNCARDitaMVETM643521:39:20+31:20
338288ROSSETTI BARTOLIDARIORUNCARDitaMASSM2673531:39:21+31:21
339933FABBRUCCILUCAATLETICA FUTURA A.S.D.itaMASSM2683541:39:24+31:24
340180MARCHIORELLOADRISMARATONETI CITTADELLESIitaMASSM2693551:39:29+31:29
341329DATIPIER ALESSANDROSTRACARRARAitaMASSM2703561:39:33+31:33
342857BALDACCIFILIPPOASD LA GALLA PONTEDERA ATL.itaMASSM2713571:39:35+31:35
343845TREGGIGIOVANNILIVORNO TEAM RUNNINGitaMASSM2723581:39:35+31:35
161129DEL NEROCHIARARUNCARDitaFASSF153591:39:37+23:28
344300MESCHINIALESSANDROG.S. ZELOFORAMAGNOitaMVETM653601:39:38+31:38
345765CASSIGRAZIANOPISA ROAD RUNNERS CLUB ASDitaMASSM2733611:39:38+31:39
346325CECCOTTIMICHELERUNCARDitaMASSM2743621:39:40+31:40
347952ALBANILUCAPOLISPORTIVA MADONETTAitaMASSM2753631:39:41+31:41
348373ELISEIMATTEORUNCARDitaMASSM2763641:39:43+31:43
349379FERRINIANDREARUNCARDitaMASSM2773651:39:45+31:45
350409MARIANIGABRIELERUNCARDitaMASSM2783661:39:46+31:46
35141SERRAMARCORUNCARDitaMASSM2793671:39:46+31:46
352196CARMINAFRANCESCOASD MARATHON CLUB PISAitaMASSM2803681:39:47+31:47
353369FALASCHIDIEGOPOL. ARCI UISP VENTURINAitaMASSM2813691:39:48+31:48
35467MARTINIMARCORUNCARDitaMASSM2823701:39:52+31:52
171115RONCHINIKATIACIRCOLO MINERVA ASDitaFASSF163711:39:55+23:46
355817MATTEUCCISERGIOGRUPPO PODISTICO ROSSINIitaMVETM663721:39:57+31:58
356818CAPONIQUINTILIORUNCARDitaMASSM2833731:39:58+31:58
181055BETTICHIARARUNCARDitaFASSF173741:40:00+23:52
357889CANTAFIOMAURORUNCARDitaMASSM2843751:40:01+32:01
358392SPINAVINCENZORUNCARDitaMVETM673761:40:06+32:06
359464BALDESCHILEONARDOSEMPRE DI CORSA TEAM TESTIitaMASSM2853771:40:09+32:09
360615PERNIGOTTICARLOGRUPPO PODISTICO ROSSINIitaMASSM2863781:40:10+32:10
361912TARFANOROBERTORUNCARDitaMVETM683791:40:10+32:11
362766CHIERICINICOLAPISA ROAD RUNNERS CLUB ASDitaMASSM2873801:40:13+32:13
363435GALEAZZIMIRCORUNCARDitaMASSM2883811:40:14+32:15
364431ALLEGRIGIANNIRUNCARDitaMASSM2893821:40:15+32:15
365216PADUANOANTONIORUNCARDitaMASSM2903831:40:18+32:18
191261ARESULUCIANAASD ATLETICA PRATOitaFASSF183841:40:19+24:10
366152SALVADORIALESSIOMAIANO G.S.itaMVETM693851:40:21+32:21
367930ANDIAJAZIRUNCARDitaMASSM2913861:40:22+32:22
368393PANTANIROBERTOLIVORNO TEAM RUNNINGitaMVETM703871:40:22+32:23
36946NIROVINCENZORUNCARDitaMASSM2923881:40:25+32:25
370594GIRLANDAMICHELEASD Q.D.D. ATLETICA MONTI PISAitaMASSM2933891:40:26+32:26
371176CIARDINILORENZORUNCARDitaMASSM2943901:40:42+32:42
372175CIARDINILAPORUNCARDitaMASSM2953911:40:42+32:43
373632PERINIDANIELEG.S. LE PANCHE CASTELQUARTOitaMASSM2963921:40:46+32:46
374962VALENTIFRANCESCOA.S.D. SEVENTIES RUNNING TEAM LUCCAitaMASSM2973931:40:51+32:51
375416VACCAIFRANCESCOPOD. MISERICORDIA AGLIANESE 19itaMASSM2983941:40:53+32:54
201215CERUTTIISABELLAPISA ROAD RUNNERS CLUB ASDitaFASSF193951:40:55+24:46
376876SALVADORISIRIOASD LA GALLA PONTEDERA ATL.itaMOROM13961:40:55+32:55
377262CONTIGIUSEPPEA.S.D. MARCIATORI ANTRACCOLIitaMASSM2993971:40:56+32:56
378754VIOLAGIUSEPPEPISA ROAD RUNNERS CLUB ASDitaMASSM3003981:40:59+32:59
379663FOSSIGIANLUCAG.P. MISERICORDIA CHIESANUOVAitaMASSM3013991:41:00+33:00
380641LEOROBERTORUNCARDitaMVETM714001:41:01+33:02
381861CHIMENTISTEFANOASD LA GALLA PONTEDERA ATL.itaMASSM3024011:41:02+33:02
211184TOGNINISARAATLETICA MASSA CARRARAitaFASSF204021:41:02+24:54
221164GENEMISIELENAGRUPPO PODISTICO ROSSINIitaFASSF214031:41:03+24:55
382455FERRANDIGIANMARCORUNCARDitaMASSM3034041:41:09+33:09
383923RAMUNDOFEDERICOASD ATLETICA PRATOitaMASSM3044051:41:11+33:12
384157DEL PINOROBERTORUNCARDitaMVETM724061:41:21+33:21
231061DE FELICEDANIELAG.S. ORECCHIELLA GARFAGNANAitaFASSF224071:41:23+25:14
385710LISCHISANDROG. POD. LE SBARREitaMVETM734081:41:23+33:23
241140BEDMAR VILLANUEVAANAitaFASSF234091:41:24+25:16
386622DE ANGELISSERGIOGRUPPO PODISTICO ROSSINIitaMASSM3054101:41:28+33:28
387539BARTOLITIZIANORUNCARDitaMVETM744111:41:31+33:31
388538CORRIASMARIOATLETICA ENTELLA RUNNING A.S.DitaMASSM3064121:41:35+33:36
389472CHIAVERINIDAVIDESEMPRE DI CORSA TEAM TESTIitaMASSM3074131:41:36+33:36
39051FADDALUIGIGS RUNNERS CAGLIARIitaMVETM754141:41:42+33:42
391703DI MEOGABRIELERUNCARDitaMASSM3084151:41:47+33:47
392466BARTOLINISERGIOSEMPRE DI CORSA TEAM TESTIitaMOROM24161:41:47+33:47
393478PAPERINIGIAMPAOLOSEMPRE DI CORSA TEAM TESTIitaMASSM3094171:41:51+33:52
394348GIORGINIANTONIORUNCARDitaMASSM3104181:41:54+33:54
39592GUIDIMATTEOATL.PESCIAitaMASSM3114191:41:59+33:59
396412CALABRIAFRANCESCORUNCARDitaMASSM3124201:42:01+34:02
397270DEL GRANDEFRANCESCOA.S.D. SEVENTIES RUNNING TEAM LUCCAitaMASSM3134211:42:04+34:04
251162ALFONSO ALFONSOYENIARUNCARDitaFASSF244221:42:05+25:56
398935TONISANDROTOSCANA ATL.EMPOLI NISSANitaMASSM3144231:42:06+34:06
399422CHIESAGIACOMOATLETICA RIVELLINO PIOMBINOitaMASSM3154241:42:11+34:11
400847GAMBOGIMARCOLIVORNO TEAM RUNNINGitaMVETM764251:42:12+34:12
401436FARNOCCHIANGELOitaMASSM3164261:42:16+34:16
402530DIMANTOVAVINCENZORUNCARDitaMASSM3174271:42:17+34:17
403320POMPEILUCARUNCARDitaMASSM3184281:42:20+34:20
404236FRANCAZIMAURORUNCARDitaMVETM774291:42:24+34:24
405275MARCANDREAGIOVANNIitaMASSM3194301:42:27+34:27
406114CIRIELLOMIRCOASD LA GALLA PONTEDERA ATL.itaMASSM3204311:42:29+34:29
407543RICCICHRISTIANitaMASSM3214321:42:32+34:32
408931FAZZIGIORGIORUNCARDitaMASSM3224331:42:40+34:40
409338BACCIRICCARDOA.S.D. GOLFO DEI POETI ARCIGNIitaMASSM3234341:42:40+34:40
410557PASQUALISANDROA.S.D. GOLFO DEI POETI ARCIGNIitaMASSM3244351:42:40+34:40
411177CENCETTINICOLARUNCARDitaMASSM3254361:42:42+34:42
412390GENOVESIANDREARUNCARDitaMASSM3264371:42:43+34:44
413727LOGLIPAOLOPISA ROAD RUNNERS CLUB ASDitaMVETM784381:42:45+34:45
414601PANNOCCHIAFABIOGRUPPO PODISTICO ROSSINIitaMASSM3274391:42:46+34:46
415251PANATOTIZIANOitaMASSM3284401:42:47+34:48
416638BENACCIFRANCESCOA.S.D. GOLFO DEI POETI ARCIGNIitaMASSM3294411:42:57+34:57
417880TONDODANIELEASD LA GALLA PONTEDERA ATL.itaMASSM3304421:43:03+35:04
418940CARBONEANTONIORUNCARDitaMVETM794431:43:04+35:04
419459GIORDANOMASSIMILIANORUNCARDitaMASSM3314441:43:04+35:04
420795MONCINIFRANCESCORUNCARDitaMVETM804451:43:06+35:06
421389BENEDETTICLAUDIORUNCARDitaMASSM3324461:43:10+35:10
422578BERTOLINIFABIOPOD.OSPEDALIERI PISAitaMASSM3334471:43:12+35:12
423407SABETTAAMERIGOG.S.P. III REGIONE AEREA BARIitaMVETM814481:43:13+35:13
261131VITELLOZZIMARGHERITAA.S.D. TEAM KM SPORTitaFASSF254491:43:13+27:05
42480SERAFINIDANIELERUNCARDitaMASSM3344501:43:17+35:18
425776GRAFFEOALESSANDROPISA ROAD RUNNERS CLUB ASDitaMASSM3354511:43:21+35:21
426901SARAFFALESSANDROA.S.D. SEVENTIES RUNNING TEAM LUCCAitaMVETM824521:43:23+35:24
427701LENZIPAOLORUNCARDitaMVETM834531:43:29+35:29
428834DIMARZIOGUIDOLIVORNO TEAM RUNNINGitaMASSM3364541:43:32+35:32
429285HETTLAURENTFOULEES ROQUEBRUNOISESfraMASSM3374551:43:33+35:34
430932MORANIASTENORERUNCARDitaMASSM3384561:43:36+35:36
431205SALVIGABRIELERUNCARDitaMASSM3394571:43:39+35:39
432658BIACCHESSIFRANCESCOG.P CROCE D'ORO PRATOitaMASSM3404581:43:41+35:42
433174CASCINILORENZOA.S.D. SEVENTIES RUNNING TEAM LUCCAitaMASSM3414591:43:42+35:42
434959PIGNATELLIMARCO MARIAA.S.D. SEVENTIES RUNNING TEAM LUCCAitaMASSM3424601:43:42+35:42
43542CASCINIGIUSEPPE LORENZOA.S.D. SEVENTIES RUNNING TEAM LUCCAitaMASSM3434611:43:45+35:45
436667ROSSIDANIELERUNCARDitaMASSM3444621:43:47+35:47
437967SIMONCINIPAOLOG.S. LE PANCHE CASTELQUARTOitaMVETM844631:43:48+35:48
438433BERNOCCHIANDREARUNCARDitaMASSM3454641:43:50+35:50
439265PANCONIWALTERA.S.D. MARCIATORI ANTRACCOLIitaMASSM3464651:43:52+35:52
440519MARCUCCISIMONERUNCARDitaMASSM3474661:43:53+35:53
441375GUIDISTEFANORUNCARDitaMASSM3484671:44:01+36:02
442183AGNOLETTIALESSANDRORUNCARDitaMASSM3494681:44:02+36:03
443397SIVIERISIMONERUNCARDitaMASSM3504691:44:03+36:03
271168ORSUCCIILARIAGRUPPO PODISTICO ROSSINIitaFASSF264701:44:03+27:55
444899NESTIMICHELEVERSILIA SPORTitaMVETM854711:44:05+36:05
445194PUCCETTISTEFANOASD LUCCA MARATHONitaMVETM864721:44:06+36:06
446150MANZINISTEFANOATL. CASTELLOitaMARGM84731:44:12+36:13
447258MARCHINIMATTEORUNCARDitaMASSM3514741:44:14+36:14
448332LOMBARDIFEDERICORUNCARDitaMASSM3524751:44:15+36:15
449363GELLIFRANCESCOPODISTICA SOLIDARIETA'itaMASSM3534761:44:15+36:15
450364GHIGIENRICOA.S.D. OLYMPIC RUNNERS LAMAitaMVETM874771:44:16+36:16
451217BINDIALESSANDRORUNCARDitaMASSM3544781:44:17+36:18
452112BOSCHIMARCOATLETICA PERIGNANOitaMVETM884791:44:18+36:18
281213CALVANICHIARAPISA ROAD RUNNERS CLUB ASDitaFASSF274801:44:20+28:11
453587NENCINIMASSIMOPOD.OSPEDALIERI PISAitaMVETM894811:44:20+36:20
291058CACCINEMANUELARUNCARDitaFASSF284821:44:21+28:12
301078MEINISERENAATLETICA RIVELLINO PIOMBINOitaFASSF294831:44:22+28:13
454107MINUTOLOFILIPPORUNCARDitaMASSM3554841:44:23+36:23
455545MATTEUCCIGIUSEPPEitaMVETM904851:44:24+36:24
311064CICCONETTISILVIARUNCARDitaFASSF304861:44:25+28:17
456336BELLATTIDANIELERUNCARDitaMASSM3564871:44:25+36:25
457661CIULLAMATTEORUNCARDitaMASSM3574881:44:26+36:26
458381CERUTISTEFANOEUROATLETICA 2002itaMASSM3584891:44:29+36:29
321138MORICLAUDIASEMPRE DI CORSA TEAM TESTIitaFASSF314901:44:29+28:21
459477NUZZIGIOVANNISEMPRE DI CORSA TEAM TESTIitaMVETM914911:44:29+36:29
331048CORDONEVALENTINARUNCARDitaFASSF324921:44:29+28:21
460494ZOPPITELLICARLORUNCARDitaMASSM3594931:44:31+36:31
461616ANTONELLISTEFANO LUIGIGRUPPO PODISTICO ROSSINIitaMASSM3604941:44:31+36:31
462848AMPOLAMASSIMILIANOLIVORNO TEAM RUNNINGitaMASSM3614951:44:35+36:35
463836MAZZOTTADECIMINO DENISRUNCARDitaMASSM3624961:44:36+36:36
341187GEPPETTISONIATEAM CELLFOODitaFLAD-B14971:44:39+28:30
464806MATTEISALESSIORUNCARDitaMASSM3634981:44:41+36:41
465451SCOPSISIMONESPEZIA MARATHON DLFitaMASSM3644991:44:42+36:42
466820PASETTOROBERTOG.S. LE PANCHE CASTELQUARTOitaMVETM925001:44:43+36:43
467914FRANCESCHININILOA.S. ATL. VINCIitaMVETM935011:44:43+36:43
351239ANGELICHIARAG.S.IL FIORINOitaFASSF335021:44:43+28:34
468821STUMPORAFFAELEG. POD. LE SBARREitaMASSM3655031:44:45+36:46
469822DI RONZAMICHELEG.S.IL FIORINOitaMVETM945041:44:46+36:46
470529BAGNIGIOVANNIG.S.AMATORI POD. AREZZOitaMASSM3665051:44:48+36:48
471263MARCELLISILVANOA.S.D. MARCIATORI ANTRACCOLIitaMASSM3675061:44:49+36:49
361154SANTOS DA SILVAGABRIELARUNCARDitaFASSF345071:44:49+28:41
371150CIAMPALINISONIARUNCARDitaFASSF355081:44:50+28:41
381104DEL PUGLIADEBORAATLETICA FUTURA A.S.D.itaFASSF365091:44:55+28:46
4721262PANICUCCIBARBARA STEFANIARUNCARDitaMASSM3685101:44:58+36:58
473564BRUZZESIGABRIELEUISP COMITATO TERR.LE ANCONAitaMASSM3695111:45:08+37:08
474689VIANIPAOLORUNCARDitaMASSM3705121:45:12+37:12
475522SBRANAGIULIORUNCARDitaMASSM3715131:45:14+37:14
476243DELL'ORCOMASSIMOATLETICA SIGNA A.S.D.itaMASSM3725141:45:16+37:16
391170ARCANGELIMONICAA.S.D. GOLFO DEI POETI ARCIGNIitaFASSF375151:45:16+29:08
477518MATTEONIRAFFAELERUNCARDitaMASSM3735161:45:16+37:16
478737PELLEGRINGIOVANNIPISA ROAD RUNNERS CLUB ASDitaMASSM3745171:45:21+37:22
479604INNOCENTIMASSIMILIANOGRUPPO PODISTICO ROSSINIitaMASSM3755181:45:22+37:22
480500GUARDASCIONEGIUSEPPEASD TRACK & FIELD MASTER GROSSitaMASSM3765191:45:26+37:26
481681LAPENTADOMENICOASSI GIGLIO ROSSO FIRENZEitaMVETM955201:45:31+37:31
482660VOLPIGIACOMORUNCARDitaMASSM3775211:45:36+37:36
483130SCOTTILUCARUNCARDitaMASSM3785221:45:38+37:38
484666BENCINIGIONATARUNCARDitaMASSM3795231:45:41+37:41
485566GRASSINIMICHELERUNCARDitaMASSM3805241:45:45+37:45
486201ORCIUOLOENRICORUNCARDitaMASSM3815251:45:52+37:52
487691NIERIALESSANDRORUNCARDitaMASSM3825261:45:53+37:53
48868PORPORAGIOVANNIRUNCARDitaMVETM965271:45:55+37:55
401114NERICARLAVERSILIA SPORTitaFASSF385281:45:59+29:50
489868GHERDINISTEFANOASD LA GALLA PONTEDERA ATL.itaMVETM975291:46:01+38:01
490508PETRELLAEMILIOASD TRACK & FIELD MASTER GROSSitaMARGM95301:46:04+38:04
411185TORRIIRENEPORCIANO G.P A.S.D.itaFASSF395311:46:05+29:56
491687RAFFAELLICRISTIANOG.S. ORECCHIELLA GARFAGNANAitaMASSM3835321:46:09+38:09
421079FIORENZANILISAATLETICA RIVELLINO PIOMBINOitaFASSF405331:46:10+30:01
492871MAZZOTTAGIUSEPPEASD LA GALLA PONTEDERA ATL.itaMASSM3845341:46:11+38:12
493569NORCINIFABIORUNCARDitaMASSM3855351:46:12+38:12
494449MARMINOSTEFANORUNCARDitaMASSM3865361:46:19+38:19
431197LORUSSOSTEFANIAPISA ROAD RUNNERS CLUB ASDitaFASSF415371:46:20+30:12
495893BAUDINOFRANCESCORUNCARDitaMVETM985381:46:20+38:20
496370ALIBONIFRANCOA.S.D. GOLFO DEI POETI ARCIGNIitaMVETM995391:46:21+38:21
441244BERTIALESSIALIVORNO TEAM RUNNINGitaFASSF425401:46:23+30:14
497479PROSPERIMAURIZIOSEMPRE DI CORSA TEAM TESTIitaMARGM105411:46:24+38:24
498215DONATINICOLO'RUNCARDitaMASSM3875421:46:24+38:25
451194PASSERAISILVIAG. POD. LE SBARREitaFASSF435431:46:38+30:30
499700PAPESCHIANDREAG. POD. LE SBARREitaMVETM1005441:46:39+38:39
500707CHERICONIEMANUELEG. POD. LE SBARREitaMASSM3885451:46:39+38:40
50176VITALERAFFAELEG. POD. LE SBARREitaMASSM3895461:46:40+38:40
502792IANNARILLIENRICOATLETICA CASCINAitaMVETM1015471:46:42+38:42
503322SCIBILIAMASSIMORUNCARDitaMVETM1025481:46:43+38:43
504149GRANUCCITIAGO ANDREARUNCARDitaMASSM3905491:46:44+38:44
505552TRAMPUZ BARNIALESSANDROATL.PESCIAitaMASSM3915501:46:44+38:44
506958BOSISIMONERUNCARDitaMASSM3925511:46:46+38:46
507238BRACHIANTONIORUNCARDitaMASSM3935521:46:46+38:46
508787POSITANOVINCENZOATLETICA CASCINAitaMVETM1035531:46:47+38:48
509562SPADONIFEDERICORUNCARDitaMVETM1045541:46:50+38:50
51036LAMBRICHARDRUNCARDgbrMASSM3945551:46:52+38:52
461151VERSACEDONATELLARUNCARDitaFASSF445561:46:55+30:46
471186BALLERIMARIA GRAZIATEAM CELLFOODitaFLAD-B25571:46:57+30:49
51143GUERRIERIMARCOP&C PODISMOECAZZEGGIOitaMASSM3955581:46:58+38:58
512230GREGORIDAVIDRUNCARDitaMASSM3965591:47:10+39:10
481139FEICRISTINARUNCARDitaFLAD-A25601:47:11+31:02
513714DEL MOROFILIPPOG. POD. LE SBARREitaMASSM3975611:47:13+39:13
514764CAROLIPAOLOPISA ROAD RUNNERS CLUB ASDitaMASSM3985621:47:16+39:16
491253BRESCIAPAOLAEQUIPE RUNNINGitaFASSF455631:47:17+31:09
515563MATTEOLICOSTANZORUNCARDitaMASSM3995641:47:19+39:19
501053SMITHRACHAEL CATHERINERUNCARDgbrFASSF465651:47:19+31:11
516512CENDERELLIMARCELLORUNCARDitaMASSM4005661:47:22+39:22
517685BENETTIFEDERICOWORLD RUNNING ACADEMYitaMVETM1055671:47:23+39:23
518156CAPPELLILUCARUNCARDitaMASSM4015681:47:25+39:25
519328MARTELLIFLAVIOPOL. ARCI UISP VENTURINAitaMASSM4025691:47:26+39:26
520750TIMPANIDOMENICOPISA ROAD RUNNERS CLUB ASDitaMVETM1065701:47:32+39:32
52170ALBERIOAGATINORUNCARDitaMVETM1075711:47:34+39:34
522333RALVELLIETTORERUNCARDitaMVETM1085721:47:39+39:39
511042QUIRICONILAURAATL.PIETRASANTA VERSILIAitaFASSF475731:47:40+31:32
523741ROTINIMICHELEPISA ROAD RUNNERS CLUB ASDitaMASSM4035741:47:41+39:41
524911GOBBINOMASSIMORUNCARDitaMASSM4045751:47:44+39:44
521005BECHERONIELISARUNCARDitaFASSF485761:47:46+31:38
531235BIGAZZIARIANNAitaFASSF495771:47:47+31:39
525453DOMANICOLEOPOLDORUNCARDphiMVETM1095781:47:48+39:49
526496FERRARIENRICOA.S.D. SEVENTIES RUNNING TEAM LUCCAitaMASSM4055791:47:52+39:52
541260ROSADIMIRIAASD ATLETICA PRATOitaFASSF505801:47:55+31:46
527400TEMPINIMAUROA.S.D. MARCIATORI ANTRACCOLIitaMVETM1105811:48:01+40:01
528762CAPRAROFRANCESCOPISA ROAD RUNNERS CLUB ASDitaMASSM4065821:48:02+40:03
551065RUGGERIKATIARUNCARDitaFASSF515831:48:03+31:54
529184DONGARRÀLORENZOASD LUCCA MARATHONitaMVETM1115841:48:07+40:07
530252DI MAIOGUIDORUNCARDitaMASSM4075851:48:25+40:25
531387MARRINILORENZORUNCARDitaMASSM4085861:48:26+40:26
532233VALVANOSERGIOA.S.D. G.S. ROATA CHIUSANIitaMVETM1125871:48:28+40:28
533153DI SUMMAGIANFRANCORUNCARDitaMASSM4095881:48:30+40:30
534504COLANERAGIAMPIEROASD TRACK & FIELD MASTER GROSSitaMASSM4105891:48:33+40:33
561166PAPINIIRENEGRUPPO PODISTICO ROSSINIitaFASSF525901:48:33+32:24
571049ARMENTOSARADE RAN CLABitaFASSF535911:48:33+32:25
535326SIMONCINIGIANCARLORUNCARDitaMASSM4115921:48:35+40:35
536561D'ANGELOMASSIMORUNCARDitaMVETM1135931:48:36+40:36
581177GNERIBARBARARUNCARDitaFASSF545941:48:36+32:28
537534SCARPELLINIVITTORIORUNCARDitaMVETM1145951:48:37+40:37
538779GUSTINUCCIPIETROPISA ROAD RUNNERS CLUB ASDitaMASSM4125961:48:40+40:40
591219NARDUCCIJASMINEPISA ROAD RUNNERS CLUB ASDitaFASSF555971:48:45+32:37
539713PARSIGIANLUCAG. POD. LE SBARREitaMASSM4135981:48:47+40:47
601072GUIDOTTIPAMELAATL. RIMINI NORD SANTARCANGELOitaFASSF565991:48:47+32:39
540414SILEOGERARDOOFFICINA PODISTICA LUCCAitaMASSM4146001:48:49+40:49
541618GINIGIAMPAOLOGRUPPO PODISTICO ROSSINIitaMASSM4156011:48:49+40:49
542366COSCETTISIMONEASD MARATHON CLUB PISAitaMASSM4166021:48:50+40:50
543315NARDILUCARUNCARDitaMASSM4176031:48:52+40:52
544705DANILUCAG. POD. LE SBARREitaMASSM4186041:48:57+40:57
545777GUERRINIANDREAPISA ROAD RUNNERS CLUB ASDitaMASSM4196051:48:57+40:58
611264DE CARLOSARACORRERE E' SALUTE MOTTOLAitaFASSF576061:48:58+32:50
546306MIRABELLOFEDERICORUNCARDitaMASSM4206071:48:58+40:59
54769TIZIALESSANDRORUNCARDitaMVETM1156081:48:59+40:59
548903VIGLIOTTILUIGICUS PISAitaMASSM4216091:48:59+41:00
549809SBRANADARIOitaMASSM4226101:49:00+41:00
621136DI GIORGIROSSELLASEMPRE DI CORSA TEAM TESTIitaFLAD-A36111:49:05+32:57
550186SIMONELLIVALERIANORUNCARDitaMVETM1166121:49:06+41:06
631259MANCINIFRANCESCAPISA ROAD RUNNERS CLUB ASDitaFASSF586131:49:07+32:58
551772FIORIDOMASSIMOPISA ROAD RUNNERS CLUB ASDitaMVETM1176141:49:07+41:07
552401BIRGACRISTIANOASD MARATHON CLUB PISAitaMASSM4236151:49:07+41:08
553774GAMBINIVALTEREPISA ROAD RUNNERS CLUB ASDitaMVETM1186161:49:09+41:10
554124PAROLAIGIACOMORUNCARDitaMASSM4246171:49:11+41:11
555427MORIDOMENICORUNCARDitaMVETM1196181:49:11+41:11
641046ZAFFERANIELISAG.P.A. SAN MARINOsmrFASSF596191:49:13+33:05
556718DANESIMARCORUNCARDitaMASSM4256201:49:14+41:14
651034CAVALLINIMARTARUNCARDitaFASSF606211:49:15+33:06
661175GRELLONIPATRIZIAG.P. AVIS CASTELRAIMONDOitaFASSF616221:49:15+33:07
557647SCURIATTIFABIOG.P. AVIS CASTELRAIMONDOitaMVETM1206231:49:15+41:16
558716MASONILEONARDORUNCARDitaMASSM4266241:49:22+41:22
559781MONTEMURROGIOVANNIATLETICA CASCINAitaMASSM4276251:49:29+41:29
560402BIANCHILEONARDOGRUPPO MARCIATORI BARGAitaMASSM4286261:49:31+41:31
561316NARDIMATTEORUNCARDitaMASSM4296271:49:32+41:32
671040KALBSABRINACAGLIARI MARATHON CLUBitaFASSF626281:49:34+33:26
562533BALDASSARRIFRANCESCOA.S.D. SEVENTIES RUNNING TEAM LUCCAitaMASSM4306291:49:35+41:35
681137MERLINOTIZIANASEMPRE DI CORSA TEAM TESTIitaFLAD-A46301:49:39+33:30
691249DA MOMMIOLIDIAATL.PIETRASANTA VERSILIAitaFASSF636311:49:40+33:32
563331CAVADINIMARCOG.S. A.CONSOLINI CERMENATEitaMASSM4316321:49:41+41:41
564897D'AMICOMAURIZIORUNCARDitaMASSM4326331:49:45+41:45
565335CHICCHIMASSIMORUNCARDitaMVETM1216341:49:46+41:46
56688THOMPSONCHRISTIANRUNCARDitaMVETM1226351:49:47+41:47
567487FEDERIGHIGIACOMORUNCARDitaMVETM1236361:49:49+41:49
568694MARCHETTILUCARUNCARDitaMASSM4336371:49:50+41:50
569688FRANCESCHIMARCOASD LUCCA MARATHONitaMASSM4346381:49:51+41:51
570949ASPRINOROSARIOATL.PESCIAitaMASSM4356391:49:52+41:52
571304VASSANELLIGIANNIRUNCARDitaMASSM4366401:49:53+41:53
572308MALAMANLUCARUNCARDitaMASSM4376411:49:53+41:54
573146BIAGINIMASSIMORUNCARDitaMASSM4386421:49:54+41:54
574438DAL MASCHIOGABRIELEESSETRE RUNNINGitaMASSM4396431:49:54+41:55
57579GUARINIRICCARDOA.S. AMATORI VILLA PAMPHILIitaMVETM1246441:49:56+41:56
576376PETRISIMONEOFFICINA PODISTICA LUCCAitaMASSM4406451:49:57+41:57
577224MONARIALBERTOASD MARATHON CLUB PISAitaMASSM4416461:49:59+41:59
578926TARANTINOGERMANORUNCARDitaMASSM4426471:50:04+42:04
701248FIALDINIBEATRICEATL.PIETRASANTA VERSILIAitaFASSF646481:50:04+33:56
579417BIAGETTIVALERIOPOL. CASTELLO LARI 1989itaMASSM4436491:50:10+42:10
580418BENVENUTIMASSIMILIANOPOL. CASTELLO LARI 1989itaMASSM4446501:50:10+42:10
581823DE PACEMICHELEASD LA GALLA PONTEDERA ATL.itaMVETM1256511:50:10+42:10
582595GIUNTINIALESSANDROGRUPPO PODISTICO ROSSINIitaMVETM1266521:50:11+42:11
711243TREMOLANTIFEDERICALIVORNO TEAM RUNNINGitaFASSF656531:50:13+34:04
583894GAMBUTICOSIMORUNCARDitaMASSM4456541:50:18+42:18
584755CECCARELLIMARCOPISA ROAD RUNNERS CLUB ASDitaMARGM116551:50:20+42:20
585278VANNIMICHELERUNCARDitaMASSM4466561:50:26+42:26
586888SPINACARMINERUNCARDitaMASSM4476571:50:27+42:27
587649SANTONICIALESSANDROG.P. AVIS CASTELRAIMONDOitaMVETM1276581:50:28+42:28
721211BORGHESIGIANNAPISA ROAD RUNNERS CLUB ASDitaFASSF666591:50:29+34:21
588729LUGLIANILORENZOPISA ROAD RUNNERS CLUB ASDitaMASSM4486601:50:30+42:30
589720CIAMPOLINIFABIANORUNCARDitaMASSM4496611:50:33+42:33
590824TINTORINIMARIORUNCARDitaMARGM126621:50:34+42:34
591863CRISMANIMARCOASD LA GALLA PONTEDERA ATL.itaMASSM4506631:50:34+42:35
592493PAPINIANDREARUNCARDitaMASSM4516641:50:38+42:38
593908PIERACCIALESSIORUNCARDitaMASSM4526651:50:40+42:40
594234MONTORODAVIDE'3C CILENTO RUNNING ACADEMY'itaMASSM4536661:50:40+42:41
731060FIORENTINILAURAPODISTI LIVORNESIitaFASSF676671:50:41+34:32
595499CAMPOMICHELEASD TRACK & FIELD MASTER GROSSitaMASSM4546681:50:43+42:43
741263LOMBARDIROBERTARUNCARDitaFLAD-A56691:50:50+34:42
59686MARIOTTILORENZOATLETICA MASSA CARRARAitaMASSM4556701:50:51+42:51
597140FRONTERAFABRIZIORUNCARDitaMASSM4566711:50:52+42:52
598312MATARESENICOLARUNCARDitaMVETM1286721:50:53+42:53
599725LIBRACEGENNAROPISA ROAD RUNNERS CLUB ASDitaMASSM4576731:50:59+43:00
600410IACOPINILEANDROASD LUCCA MARATHONitaMASSM4586741:51:03+43:03
601178GIURLANIMARINORUNCARDitaMASSM4596751:51:08+43:08
751024KOZLOVSKAMARIYAA.S.D. GOLFO DEI POETI ARCIGNIukrFASSF686761:51:10+35:02
602832FALLENIANDREALIVORNO TEAM RUNNINGitaMVETM1296771:51:11+43:11
603276AVELLANIANTONIOROMATLETICA FOOTWORKSitaMVETM1306781:51:13+43:13
604474MONACORICCARDOSEMPRE DI CORSA TEAM TESTIitaMVETM1316791:51:13+43:13
605355ULIVIMAURIZIOATL.PIETRASANTA VERSILIAitaMASSM4606801:51:15+43:15
761092AGOSTINISIMONAATL.PIETRASANTA VERSILIAitaFASSF696811:51:15+35:07
606937MOLINARORAFFAELEG. POD. LE SBARREitaMASSM4616821:51:19+43:19
607715CAPOGERARDOG. POD. LE SBARREitaMASSM4626831:51:21+43:21
608964BERTOLINIMARCOPISA ROAD RUNNERS CLUB ASDitaMASSM4636841:51:22+43:22
771247BONIFAZISILVIAA.S.D. EQUILIBRA RUNNING TEAMitaFASSF706851:51:24+35:16
781156MIONIMARINARUNCARDitaFASSF716861:51:27+35:18
609953LAZZONIMAUROPOLISPORTIVA MADONETTAitaMARGM136871:51:27+43:27
791193BALDINISARAG. POD. LE SBARREitaFASSF726881:51:28+35:20
610119CARRARAGIACOMORUNCARDitaMVETM1326891:51:29+43:30
611521SERENIALESSANDRORUNCARDitaMASSM4646901:51:33+43:33
801105VANNOZZIELISARUNCARDitaFASSF736911:51:38+35:30
612192DINILUCAASD LUCCA MARATHONitaMASSM4656921:51:39+43:39
613225SORIANIMASSIMILIANOATL.GROSSETO BANCA D .MAREMMAitaMASSM4666931:51:43+43:43
614948DUGINILUCIANOPODISTI LIVORNESEitaMARGM146941:51:47+43:47
615319ROSIPIER LUIGIS.S. LAZIO ATLETICA LEGGERAitaMASSM4676951:51:56+43:56
811220FERRETTIFRANCAPISA ROAD RUNNERS CLUB ASDitaFLAD-B36961:51:58+35:49
61637NICESEFRANCESCOG.S. LE PANCHE CASTELQUARTOitaMVETM1336971:52:00+44:00
617214MANZELLASALVATOREESERCITO 62° REGGIMENTO FANTEitaMVETM1346981:52:02+44:02
821062BERTONCINIERIKAG.S. ORECCHIELLA GARFAGNANAitaFASSF746991:52:02+35:54
831110PALLAVERONICARUNCARDitaFASSF757001:52:04+35:55
618334FERRARIDAVIDROAD RUNNERS CLUB MILANOitaMASSM4687011:52:08+44:08
619171CARDARELLIMASSIMOPISA SPORT & TURISMO ASDitaMASSM4697021:52:09+44:09
620346COGOTTIPAOLORUNCARDitaMASSM4707031:52:11+44:11
621939BALDINIALESSIORUNCARDitaMASSM4717041:52:12+44:12
622344FERRANTISIMONEASD MARATHON CLUB PISAitaMVETM1357051:52:14+44:14
623128MARSILIENRICOPOD.OSPEDALIERI PISAitaMASSM4727061:52:14+44:14
841181LUPETTICRISTINAitaFLAD-A67071:52:15+36:07
624735PACCIARDINICOLAPISA ROAD RUNNERS CLUB ASDitaMASSM4737081:52:16+44:16
625482TANFERNAMICHELESEMPRE DI CORSA TEAM TESTIitaMASSM4747091:52:19+44:20
626651ORLANDIALESSANDROG.S. ORECCHIELLA GARFAGNANAitaMASSM4757101:52:20+44:20
851252GONNELLICATIAitaFASSF767111:52:23+36:15
627644CARMASSIFABRIZIOVERSILIA SPORTitaMVETM1367121:52:27+44:27
628572BELLOMIMASSIMILIANOG.A.A.C. 2007 VERONAMARATHONitaMASSM4767131:52:28+44:28
861153HRISTACHEGIANINA MELANIARUNCARDromFASSF777141:52:28+36:20
629673SELVASTEFANOG.S.FILIPPIDEitaMASSM4777151:52:44+44:44
630808FRULLINIWILLIAMSitaMASSM4787161:52:44+44:44
631193OPALOSTEFANOASD LUCCA MARATHONitaMVETM1377171:52:45+44:45
632684DI CECILIADONATORUNCARDitaMASSM4797181:52:48+44:48
633768CONTIMAURIZIOPISA ROAD RUNNERS CLUB ASDitaMASSM4807191:52:49+44:49
871063BORSELLISILVIARUNCARDitaFASSF787201:52:50+36:42
881132FILIPPONISABRINARUNCARDitaFASSF797211:52:50+36:42
891070BINIARIANNARUNCARDitaFASSF807221:52:51+36:42
634900ZRNICBRANKORUNCARDsrbMASSM4817231:52:51+44:51
635360LENAGIANFRANCOTEAM OTC COMOitaMVETM1387241:52:54+44:54
636340GIULIANIPAOLOCALCATERRA SPORT ASDitaMVETM1397251:52:59+44:59
637941TORTORAGIANLUCARUNCARDitaMASSM4827261:53:01+45:02
638440GIANNETTICLAUDIORUNCARDitaMASSM4837271:53:03+45:03
639850MARIANETTIMASSIMOGRUPPO PODISTICO ROSSINIitaMVETM1407281:53:05+45:05
640527CORSIFABIORUNCARDitaMVETM1417291:53:05+45:05
641208GIORDANIPIERORUNCARDitaMASSM4847301:53:07+45:07
642945SCALISEROSARIORUNCARDitaMVETM1427311:53:08+45:08
901016BROEKEBRIGITTAG.S. LE PANCHE CASTELQUARTOnedFLAD-A77321:53:09+37:01
911255STAMPINIKATIAPISA ROAD RUNNERS CLUB ASDitaFASSF817331:53:17+37:09
64352CAPRONIMARCORUNCARDitaMVETM1437341:53:23+45:23
644648GUIDOMAURIZIOG.P. AVIS CASTELRAIMONDOitaMVETM1447351:53:29+45:29
645965MONACOVINCENZOA.S.D. SEVENTIES RUNNING TEAM LUCCAitaMASSM4857361:53:32+45:32
646163SIMIALESSANDRORUNCARDitaMASSM4867371:53:35+45:35
647473MASTALLIMASSIMILIANOSEMPRE DI CORSA TEAM TESTIitaMASSM4877381:53:37+45:37
648491MARANGONIRICCARDORUNCARDitaMASSM4887391:53:38+45:38
649570SALVINIFABIORUNCARDitaMVETM1457401:53:41+45:41
650420PREGNOLATOALESSANDROOFFICINA PODISTICA LUCCAitaMASSM4897411:53:47+45:47
651339GRASSONICOLAA.S.D. ATL. ENERGIA ROMAitaMASSM4907421:53:48+45:48
652126MAGALDILUCIANORUNCARDitaMASSM4917431:53:49+45:49
921222FILIPPILETIZIAPISA ROAD RUNNERS CLUB ASDitaFASSF827441:53:52+37:44
653804GIOVANELLIMORENORUNCARDitaMARGM157451:53:55+45:56
654195MAGNIGIANFRANCORUNCARDitaMASSM4927461:53:59+45:59
655266ANNIBALLOARTURORUNCARDitaMARGM167471:54:00+46:00
656138LUCCIADRIANO PIETROG.S. LE PANCHE CASTELQUARTOitaMARGM177481:54:06+46:06
931159DI MARIFEDERICARUNCARDitaFASSF837491:54:07+37:59
657722CORBANIMASSIMILIANORUNCARDitaMASSM4937501:54:08+46:08
658133GUERRIERIMATTEORUNCARDitaMASSM4947511:54:19+46:20
941043ANDREINIMIRELLAG.P.A. SAN MARINOsmrFASSF847521:54:23+38:15
659450DE LILLOPIETROASD LUCCA MARATHONitaMASSM4957531:54:24+46:24
660421GENOVESIGIAN LUCARUNCARDitaMVETM1467541:54:27+46:27
951202POGGIONIELISAPISA ROAD RUNNERS CLUB ASDitaFASSF857551:54:28+38:20
661227BORTOLONIROBERTOA.S.D. PODISTICA TORINOitaMVETM1477561:54:29+46:29
961201MIGLIOREMICHELAPISA ROAD RUNNERS CLUB ASDitaFASSF867571:54:31+38:23
662237FALLANTILUCARUNCARDitaMASSM4967581:54:35+46:35
66360MARGINETDOMINIQUERUNCARDbelMASSM4977591:54:39+46:39
66458MICCOLIDAVIDRUNCARDfraMASSM4987601:54:39+46:39
971230SANNAFRANCESCAATLETICA CASCINAitaFASSF877611:54:40+38:32
665786ATTUALIFRANCESCOATLETICA CASCINAitaMASSM4997621:54:41+46:41
666341TETIMAURORAVENNA RUNNERS CLUB ASDitaMASSM5007631:54:41+46:41
667317FONTANELLIDAVIDASD Q.D.D. ATLETICA MONTI PISAitaMVETM1487641:54:44+46:44
668280AGOSTINELLIMARCORUNCARDitaMASSM5017651:54:46+46:46
669927TREDICILIDORUNCARDitaMVETM1497661:54:47+46:47
981097LA FRANCESCAGAETANA RITARUNCARDitaFASSF887671:54:48+38:40
670656BIGONICLAUDIOPOL. CASTELLO LARI 1989itaMASSM5027681:54:49+46:49
991121ROSSIARDEAG.S.D. MOMBOCARitaFASSF897691:54:55+38:47
671794SILVESTRINILUCARUNCARDitaMASSM5037701:54:56+46:57
672807SALMINIFABRIZIOitaMASSM5047711:54:57+46:57
1001179BERTOZZIROMINAATL. AVIS CASTEL S.PIETROitaFASSF907721:54:58+38:50
673637BENACCIANDREAA.S.D. GOLFO DEI POETI ARCIGNIitaMASSM5057731:55:02+47:03
1011084HURYKGABRIELLAA.S.D. SEVENTIES RUNNING TEAM LUCCAitaFASSF917741:55:03+38:55
674827CHILLERISIRIORUNCARDitaMVETM1507751:55:06+47:06
675826MANNUCCIMARCORUNCARDitaMASSM5067761:55:06+47:06
676825MASTROSIMONEGABRIELELIVORNO TEAM RUNNINGitaMASSM5077771:55:06+47:07
677430PASCAILUCIANOCSI SASSO MARCONIitaMVETM1517781:55:09+47:09
1021206SPATERNACRISTIANAPISA ROAD RUNNERS CLUB ASDitaFASSF927791:55:10+39:01
678419LENZISTEFANOPODISTI LIVORNESIitaMVETM1527801:55:14+47:14
679223SODOCELSOA.ATL. CANDELOitaMARGM187811:55:17+47:17
68047CIARIANTHONYRUNCARDitaMASSM5087821:55:17+47:17
68140VERZERAALBERTO AURELIORUNCARDitaMASSM5097831:55:20+47:20
682226MAZZONIANDREARUNCARDitaMVETM1537841:55:22+47:22
1031146BENEDETTISILVANAASD TRACK & FIELD MASTER GROSSitaFLAD-A87851:55:22+39:14
683490FASCETTIGIACOMORUNCARDitaMVETM1547861:55:26+47:26
1041267BOTTARETTOCARLOTTARUNCARDitaFASSF937871:55:30+39:21
684846CARMASIEMANUELELIVORNO TEAM RUNNINGitaMASSM5107881:55:33+47:33
685277MANNELLIFRANCESCORUNCARDitaMARGM197891:55:35+47:35
1051224GIUDICIPAOLAPISA ROAD RUNNERS CLUB ASDitaFLAD-A97901:55:39+39:31
1061119APREAVINCENZAASD LA GALLA PONTEDERA ATL.itaFASSF947911:55:43+39:34
1071089BARSIMARIA CECILIARUNCARDitaFLAD-B47921:55:45+39:37
686309BELOSOANTONIORUNCARDitaMASSM5117931:55:50+47:50
687680TACCHIMARCOVERSILIA SPORTitaMASSM5127941:55:57+47:57
688188BARCASALVATORERUNCARDitaMVETM1557951:55:58+47:58
689248BENAZZIFABRIZIORUNCARDitaMASSM5137961:56:08+48:08
690565GOZZINIPAOLORUNCARDitaMVETM1567971:56:08+48:08
691549AVIOLUCIANOitaMVETM1577981:56:16+48:16
1081233BALDINISUSANNARUNCARDitaFLAD-A107991:56:19+40:11
1091028LANDIFEDERICAATL.PESCIAitaFASSF958001:56:25+40:17
1101051FALAILORELLARUNCARDitaFLAD-A118011:56:28+40:20
1111250GRASSINIILARIAPOD.OSPEDALIERI PISAitaFASSF968021:56:30+40:22
1121214CAMBIELENAPISA ROAD RUNNERS CLUB ASDitaFLAD-A128031:56:41+40:33
692652STADERINIMARCOTOSCANA ATL.EMPOLI NISSANitaMVETM1588041:56:44+48:44
1131143BICOCCHISILVIAASD TRACK & FIELD MASTER GROSSitaFASSF978051:56:47+40:38
693122GIANNELLICOSTANZOSOC. ATL. VOLTERRAitaMVETM1598061:56:50+48:50
694145MONTALDODANILOASD PODISTICA PERALTO GENOVAitaMVETM1608071:56:59+48:59
695890PARDINIGABRIELEPOD.OSPEDALIERI PISAitaMASSM5148081:57:05+49:05
696182ISCARODOMENICORUNNING CLUB MARATONA DI ROMAitaMARGM208091:57:14+49:14
697683BENEDETTIALDO PIERLUIGIRUNCARDitaMASSM5158101:57:26+49:26
1141174STEFANIROBERTAASD LUCCA MARATHONitaFLAD-A138111:57:28+41:20
1151198MALFATTIFRANCESCAPISA ROAD RUNNERS CLUB ASDitaFASSF988121:57:29+41:20
1161071CONTISIMONARUNCARDitaFASSF998131:57:29+41:21
698425LORUSSOGIOVANNIRUNCARDitaMASSM5168141:57:29+49:29
1171242RIGHINISARALIVORNO TEAM RUNNINGitaFASSF1008151:57:33+41:25
699377GRISELLICLAUDIOA.S.D. CENTRO SPORTitaMASSM5178161:57:43+49:43
700516COLZIMARCOA.S.D. AVIS STIAVAitaMASSM5188171:57:44+49:45
701588MICHELETTAANTONIOPOD.OSPEDALIERI PISAitaMVETM1618181:57:46+49:46
1181036SCARNICCIELISABETTARUNCARDitaFASSF1018191:57:49+41:41
1191037GALLORINISERENALE TORRI PODISMO A.S.D.itaFASSF1028201:57:49+41:41
702625FERRANDOROBERTOGRUPPO PODISTICO ROSSINIitaMVETM1628211:57:52+49:52
1201094CORSINOVILUCIARUNCARDitaFLAD-A148221:58:05+41:56
1211095PUCCISIMONARUNCARDitaFASSF1038231:58:05+41:57
703798CAROSIDINOASD LA GALLA PONTEDERA ATL.itaMASSM5198241:58:10+50:11
704951GAMBINOMASSIMILIANOPOLISPORTIVA MADONETTAitaMASSM5208251:58:13+50:13
705956GUASCORICCARDOGRUPPO PODISTICO G.A.U.itaMASSM5218261:58:15+50:15
706756BARDIMANUELEPISA ROAD RUNNERS CLUB ASDitaMASSM5228271:58:20+50:21
1221226GRASSINIPAOLAPISA ROAD RUNNERS CLUB ASDitaFLAD-A158281:58:21+42:12
707380PASSARELLI LIOMICHELEGRUPPO PODISTICO ROSSINIitaMASSM5238291:58:22+50:22
1231102PACINIPATRIZIA ALMARUNCARDitaFASSF1048301:58:24+42:15
708365SARTIFRANCESCOG.P. PARCO ALPI APUANEitaMVETM1638311:58:24+50:25
709307PILOTTOMASSIMILIANORUNCARDitaMASSM5248321:58:26+50:26
1241054DELLA GOTTABARBARARUNCARDitaFASSF1058331:58:31+42:22
710556POLITANOANDREARUNCARDitaMASSM5258341:58:32+50:32
711147COMITOFRANCESCOG.P.A. SAN MARINOitaMASSM5268351:58:33+50:33
712568DELL' AMICOMASSIMORUNCARDitaMASSM5278361:58:33+50:34
713599DEL SEPPIAANDREAGRUPPO PODISTICO ROSSINIitaMVETM1648371:58:34+50:34
1251081CREMONINICHIARARUNCARDitaFASSF1068381:58:35+42:26
714155SALETTIPIERLUIGIRUNCARDitaMASSM5288391:58:41+50:41
1261076MARINICARLARUNCARDitaFLAD-A168401:58:42+42:33
1271075COSTALAURARUNCARDitaFASSF1078411:58:45+42:37
715646BISIMARIORUNCARDitaMVETM1658421:58:47+50:48
716961PEZZINIANGELOASD MARATHON CLUB PISAitaMARGM218431:58:53+50:53
1281066GIGLIALESSANDRARUNCARDitaFASSF1088441:58:59+42:50
1291127CENTAZZOMARIANGELAESSETRE RUNNINGitaFASSF1098451:58:59+42:51
717573BINIROBERTOPOL DILL OMEGAitaMASSM5298461:59:01+51:01
718574URBANISTEFANOPOL DILL OMEGAitaMASSM5308471:59:02+51:02
1301192BRIGNOCCOLIANNALISAG. POD. LE SBARREitaFASSF1108481:59:05+42:57
719391CASELLAVINICIORUNCARDitaMVETM1668491:59:10+51:11
720732MERLIALESSANDROPISA ROAD RUNNERS CLUB ASDitaMASSM5318501:59:12+51:12
72191HALLEAXELRUNCARDgerMVETM1678511:59:14+51:14
722699BESENGHIMASSIMILIANOATL. ARCI FAVAROitaMASSM5328521:59:23+51:23
1311133VELLAMARIAPIARUNCARDitaFLAD-A178531:59:27+43:19
723915CHLISTOVSKJFILIPPORUNCARDitaMASSM5338541:59:30+51:30
1321240BENINIBARBARARUNCARDitaFLAD-A188551:59:30+43:22
1331241BELLINIELISABETTARUNCARDitaFLAD-A198561:59:30+43:22
724829MATTEUCCIMAUROGRUPPO PODISTICO ROSSINIitaMASSM5348571:59:31+51:31
725235CARDUCCILORENZOPISA ROAD RUNNERS CLUB ASDitaMARGM228581:59:34+51:35
1341216CETTUZZICRISTIANAPISA ROAD RUNNERS CLUB ASDitaFASSF1118591:59:35+43:26
726783SCESIMONEATLETICA CASCINAitaMVETM1688601:59:36+51:36
1351050BIANCHICRISTINARUNCARDitaFASSF1128611:59:55+43:47
727620MASINIIVOGRUPPO PODISTICO ROSSINIitaMOROM38622:00:02+52:02
728498INZANIALBERTORUNCARDitaMASSM5358632:00:04+52:04
729383BATTAGLIALUCAASS.POD.MARCIATORI MARLIESIitaMASSM5368642:00:08+52:08
730734MONTICELLIGIOVANNIPISA ROAD RUNNERS CLUB ASDitaMASSM5378652:00:09+52:09
1361158ALBERTIBARBARAASD LA GALLA PONTEDERA ATL.itaFLAD-A208662:00:11+44:02
731286SBRANASTEFANOASD LA GALLA PONTEDERA ATL.itaMASSM5388672:00:12+52:12
732532VERITÀGABRIELERUNCARDitaMASSM5398682:00:23+52:23
733547AMMAZZINIMASSIMILIANOitaMVETM1698692:00:25+52:26
734898CORTOPASSIPAOLOVERSILIA SPORTitaMVETM1708702:00:30+52:30
735434CIANFERONIGIACOMOASD SPORTLAB TEAMitaMASSM5408712:00:31+52:31
1371147MARIANISIMONAASD LA GALLA PONTEDERA ATL.itaFASSF1138722:00:31+44:23
736287MICHELISIMONEASS.POD.MARCIATORI MARLIESIitaMASSM5418732:00:35+52:35
1381090MICHETTISILVIAASS.POD.MARCIATORI MARLIESIitaFASSF1148742:00:35+44:27
737497BETTINIMARCOCSI SASSO MARCONIitaMASSM5428752:00:40+52:40
738614ROMANOFELICEGRUPPO PODISTICO ROSSINIitaMASSM5438762:00:47+52:47
739452INCROCCIFILIPPOATLETICA LIVORNOitaMASSM5448772:01:05+53:05
740731MAZZINGHIMARCELLOPISA ROAD RUNNERS CLUB ASDitaMVETM1718782:01:46+53:46
741274PALESTRIALEXYOUNG RUNNINGitaMASSM5458792:01:51+53:51
1391229LUONGOSTEFANIAATLETICA CASCINAitaFASSF1158802:01:52+45:43
1401160CHITIVALENTINAPOD.OSPEDALIERI PISAitaFASSF1168812:01:53+45:44
1411125AMERINISARARUNCARDitaFASSF1178822:01:58+45:50
1421205SELLERIPAOLAPISA ROAD RUNNERS CLUB ASDitaFASSF1188832:02:00+45:51
1431152INNAMORATOMARIARUNCARDitaFLAD-A218842:02:01+45:53
742240BENETTIENRICORUNCARDitaMASSM5468852:02:04+54:04
1441041DONATICRISTINAATL.PIETRASANTA VERSILIAitaFASSF1198862:02:05+45:57
743746SORRENTINOFIODORPISA ROAD RUNNERS CLUB ASDitaMASSM5478872:02:06+54:06
744305ANDREANIANDREARUNCARDitaMASSM5488882:02:07+54:07
74594BERNARDOMASSIMILIANOPODISTICA SOLIDARIETA'itaMASSM5498892:02:11+54:11
1451173ANICHINIVERONICARUNCARDitaFASSF1208902:02:13+46:05
746711LUCIINICOLAG. POD. LE SBARREitaMASSM5508912:02:14+54:14
1461155COLOMBINISANDRAASD CANAPINOitaFLAD-A228922:02:17+46:09
747548BERTACCHIPAOLOCOMITATO PROVINCIALE U.I.S.P. LUCCA-VERSILIA A.S.D.itaMVETM1728932:02:17+54:17
748943MASINISAUROG.S.D. LIBERTAS LA TORREitaMVETM1738942:02:30+54:30
749767CIPOLLIMICHELEPISA ROAD RUNNERS CLUB ASDitaMVETM1748952:02:34+54:34
750891MARCHETTIANDREARUNCARDitaMASSM5518962:02:41+54:41
75198LANDUZZIROBERTOPODISTICA PONTELUNGO BOLOGNAitaMVETM1758972:02:48+54:48
1471074FUSICLAUDIAitaFASSF1218982:02:57+46:48
752327GIAGNONILORENZORUNCARDitaMASSM5528992:03:00+55:01
1481112BERTINIILARIARUNCARDitaFASSF1229002:03:01+46:53
753525DEGL'INNOCENTIFABIORUNCARDitaMARGM239012:03:08+55:09
754141CONTIANDREARUNCARDitaMASSM5539022:03:17+55:17
755770DEL SEPPIALIVIOPISA ROAD RUNNERS CLUB ASDitaMASSM5549032:03:31+55:31
756553BARBANOTTIGIANLUCARUNCARDitaMVETM1769042:03:31+55:32
1491171DELLA BELLATANIAPODISTICA SOLIDARIETA'itaFASSF1239052:03:39+47:30
1501176PAOLIILARIAA.S.D. SEVENTIES RUNNING TEAM LUCCAitaFASSF1249062:03:39+47:31
1511128BARDIFRANCESCARUNCARDitaFASSF1259072:03:46+47:38
1521116DANGELOSANTESIMONARUNCARDitaFASSF1269082:03:50+47:41
757523BALLESIOALESSANDRORUNCARDitaMASSM5559092:03:51+55:51
1531109DI SANTOMARTARUNCARDitaFASSF1279102:04:00+47:52
75897SALMICORRADINOPODISTICA PONTELUNGO BOLOGNAitaMASSM5569112:04:17+56:18
759852PERRONEVITTORIO GRAZIOitaMASSM5579122:04:17+56:18
760299BANTIMASSIMILIANORUNCARDitaMASSM5589132:04:19+56:19
761919CAPPELLISIMONEASD ATLETICA PRATOitaMASSM5599142:04:19+56:19
1541080FULIGNIMELANIARUNCARDitaFASSF1289152:04:21+48:12
1551234ROSSIELENARUNCARDitaFASSF1299162:04:23+48:14
1561069CONTINIPATRIZIARUNCARDitaFLAD-A239172:04:26+48:17
762104MARZINIEMANUELRUNCARDitaMASSM5609182:04:27+56:27
763318BOSIEMANUELERUNCARDitaMASSM5619192:04:30+56:30
76438DREWROBERTSNEYD STRIDERSgbrMARGM249202:04:30+56:31
765428ARCIERIVITORUNCARDitaMASSM5629212:04:32+56:32
1571033MAZZACANIFRANCESCAATLETICA PALZOLAitaFASSF1309222:04:35+48:27
766398PICCINIALESSANDRORUNCARDitaMVETM1779232:04:36+56:36
767362GANOVELLIFRANCOA.S.D. OLYMPIC RUNNERS LAMAitaMVETM1789242:04:39+56:40
768106FILIPPELLIDAVIDPODISTI LIVORNESIitaMVETM1799252:04:48+56:48
1581038GRASSISARARUNCARDitaFASSF1319262:04:56+48:47
1591093CAPPELLETTICHIARAATLETICA RIVELLINO PIOMBINOitaFASSF1329272:04:58+48:49
769441PUCCICARLORUNCARDitaMARGM259282:05:01+57:02
770349BUFFINIFAUSTORUNCARDitaMVETM1809292:05:09+57:10
771791ANTONELLIETTOREATLETICA CASCINAitaMARGM269302:05:10+57:10
7721269TOTAROMARIOASD ATLETICA PRATOitaMARGM279312:05:16+57:16
77339HARRISONSTANLEYSNEYD STRIDERSgbrMARGM289322:05:19+57:19
1601169MAGGIOLICRISTINARUNCARDitaFASSF1339332:05:22+49:14
774797COPPOMARCELLOPOD.OSPEDALIERI PISAitaMARGM299342:05:23+57:23
1611268BIANCHIMICHELARUNCARDitaFASSF1349352:05:28+49:20
775169ANGELONICLAUDIOA.S.D. MARCIATORI ANTRACCOLIitaMARGM309362:05:29+57:29
776860CANNAZZADARIOASD LA GALLA PONTEDERA ATL.itaMASSM5639372:05:32+57:32
777571CANNAZZARAFFAELEAMATORI CASTRIGNANO DE' GRECIitaMARGM319382:05:32+57:32
778759CACIALLIMARCOPISA ROAD RUNNERS CLUB ASDitaMASSM5649392:05:36+57:36
779929GIORGETTISTEFANOASD LUCCA MARATHONitaMASSM5659402:05:40+57:40
780486BIANCHINICOLARUNCARDitaMASSM5669412:06:02+58:02
781697MASSEIMARCOGS COLOGNORA DI COMPITOitaMVETM1819422:06:04+58:04
782239SUFFRITIPARIDERUNCARDitaMASSM5679432:06:08+58:08
783654GRANDISFRANCESCORUNCARDitaMASSM5689442:06:08+58:08
1621188GEMIGNANITANIAG.S. ORECCHIELLA GARFAGNANAitaFASSF1359452:06:12+50:04
1631217CILIBERTOYLENIAPISA ROAD RUNNERS CLUB ASDitaFASSF1369462:06:12+50:04
784544DI DOMENICOGIANPAOLORUNCARDitaMASSM5699472:06:14+58:14
1641191CEIRAMONAG. POD. LE SBARREitaFASSF1379482:06:22+50:14
1651195DEL MOROFEDERICAG. POD. LE SBARREitaFASSF1389492:06:22+50:14
785934BERTINIGIANNIRUNCARDitaMASSM5709502:06:23+58:23
1661265DI CESAREDANIELAG. POD. LE SBARREitaFASSF1399512:06:23+50:15
1671190VELLASERAFINARUNCARDitaFASSF1409522:06:23+50:15
786752TRILLOEMILIANOPISA ROAD RUNNERS CLUB ASDitaMASSM5719532:06:40+58:40
1681207STAGNARIELENAPISA ROAD RUNNERS CLUB ASDitaFASSF1419542:06:43+50:35
787955CAPECCHIROBERTOATL.BORGO A BUGGIANOitaMVETM1829552:06:45+58:45
788212GIANNONEMAURIZIORUNCARDitaMASSM5729562:07:05+59:05
789580CASSARRIDANIELEPOD.OSPEDALIERI PISAitaMASSM5739572:08:07+1:00:07
1691231CICCHETTIGENEROSAATLETICA CASCINAitaFLAD-A249582:08:26+52:18
1701183BALDIKRIZIARUNCARDitaFASSF1429592:08:35+52:27
790154GRANDISLORENZORUNCARDitaMASSM5749602:08:35+1:00:36
1711117ODDISILVIAASD LA GALLA PONTEDERA ATL.itaFASSF1439612:08:38+52:29
1721101CIOFINITAMARAASD LA GALLA PONTEDERA ATL.itaFASSF1449622:08:38+52:30
791172TERENZONILUIGISPEZIA MARATHON DLFitaMVETM1839632:08:43+1:00:43
792484AMOREMASSIMOATL.PIETRASANTA VERSILIAitaMVETM1849642:08:44+1:00:44
1731083MARTELLIDENISEGSD LIBERTAS LA TORREitaFASSF1459652:08:47+52:38
1741027SCHIRRUSABRINABLUE TRIBUNE S.R.L. SOCIETA SPitaFASSF1469662:08:55+52:47
793231GIUNTOLINICOLARUNCARDitaMASSM5759672:08:58+1:00:59
1751189CENTOFANTILUISARUNCARDitaFASSF1479682:08:58+52:50
1761221FERRIDENISEPISA ROAD RUNNERS CLUB ASDitaFASSF1489692:09:09+53:01
1771039BAGNIPAOLARUNCARDitaFLAD-A259702:09:18+53:09
1781251MUGNAIVALENTINARUNCARDitaFASSF1499712:09:21+53:12
1791082PAPINISUSANNARUNCARDitaFASSF1509722:09:23+53:14
794728LORITOANTONIOPISA ROAD RUNNERS CLUB ASDitaMVETM1859732:09:39+1:01:39
795662VICINANZAROBERTORUNCARDitaMARGM329742:09:47+1:01:47
1801204SANTOROPAOLAPISA ROAD RUNNERS CLUB ASDitaFASSF1519752:09:59+53:51
1811212BRACCIMONICAPISA ROAD RUNNERS CLUB ASDitaFASSF1529762:09:59+53:51
796255SALSEDOANTONIOPISA ROAD RUNNERS CLUB ASDitaMASSM5769772:10:00+1:02:00
1821167PARDINIELENAGRUPPO PODISTICO ROSSINIitaFASSF1539782:10:20+54:12
797805ROSSITIZIANORUNCARDitaMASSM5779792:11:06+1:03:06
798591SODISIMONEPOD.OSPEDALIERI PISAitaMASSM5789802:11:14+1:03:14
799579CARMIGNANISTEFANOPOD.OSPEDALIERI PISAitaMASSM5799812:11:14+1:03:14
800657BERTUCCELLIRICCARDOA.S.D. SEVENTIES RUNNING TEAM LUCCAitaMVETM1869822:11:21+1:03:21
801111TOMMASIELLOMARCOASD ATLETICA ALTA TOSCANAitaMASSM5809832:11:37+1:03:37
1831209BATTAGLIAFRANCESCAPISA ROAD RUNNERS CLUB ASDitaFLAD-A269842:11:43+55:34
802664TOGNACCINIMAURIZIOLE TORRI PODISMO A.S.D.itaMVETM1879852:12:12+1:04:12
1841035MALGRANDEANTONELLAPODISTICA SOLIDARIETA'itaFLAD-A279862:12:21+56:13
1851022TIBERTIFRANCESCA ROMANAPODISTICA SOLIDARIETA'itaFASSF1549872:12:22+56:13
803353ROYERJACQUESATHLE DU PAYS DE REDONfraMARGM339882:12:30+1:04:30
804606D'AMANZOAUGUSTOGRUPPO PODISTICO ROSSINIitaMARGM349892:13:08+1:05:08
1861165COMPARINIDONATELLAGRUPPO PODISTICO ROSSINIitaFLAD-B59902:13:08+57:00
805946SEBASTIANILUCARUNCARDitaMASSM5819912:13:16+1:05:16
1871086GESU'MARIA ANTONIETTARUNCARDitaFLAD-A289922:13:18+57:09
806267DI LECCEIGNAZIO ENRICORUNCARDitaMVETM1889932:13:18+1:05:18
1881161NARDITERESAPOD.OSPEDALIERI PISAitaFASSF1559942:13:32+57:23
1891122CHAPAPAULARUNCARDusaFASSF1569952:13:54+57:46
807314GANDOLFOANTONINORUNCARDitaMASSM5829962:14:00+1:06:00
1901032FIORINLAURARUNCARDitaFASSF1579972:14:19+58:11
808966BUCCIANDREARUNCARDitaMASSM5839982:14:26+1:06:26
1911258LOIMARIA VITTORIARUNCARDitaFASSF1589992:14:26+58:18
809849MAZZONISIMONEGRUPPO PODISTICO ROSSINIitaMASSM58410002:14:34+1:06:34
1921246CAROTIFRANCESCAGRUPPO PODISTICO ROSSINIitaFASSF15910012:14:34+58:26
1931200MENCONIRAFFAELLAPISA ROAD RUNNERS CLUB ASDitaFASSF16010022:14:57+58:48
1941218DAMIANIVALENTINAPISA ROAD RUNNERS CLUB ASDitaFASSF16110032:14:57+58:48
810758CACCETTAANGELOPISA ROAD RUNNERS CLUB ASDitaMARGM3510042:14:57+1:06:57
1951210BESSIGUIAPISA ROAD RUNNERS CLUB ASDitaFLAD-A2910052:14:57+58:49
1961196LECCINADIAPISA ROAD RUNNERS CLUB ASDitaFLAD-A3010062:14:57+58:49
1971103ORLANZAALESSANDRARUNCARDitaFASSF16210072:14:58+58:50
811408GUALANDILUCARUNCARDitaMVETM18910082:15:12+1:07:12
812751TOMMASILUIGIPISA ROAD RUNNERS CLUB ASDitaMVETM19010092:15:20+1:07:20
813396TONARELLIMASSIMORUNCARDitaMVETM19110102:15:42+1:07:42
1981107MUSCELEANUCRISTINARUNCARDromFASSF16310112:15:50+59:41
1991149CRECCHIVANESSARUNCARDitaFASSF16410122:16:07+59:58
2001148LASTRUCCIANNARUNCARDitaFASSF16510132:16:07+59:59
814642MALACARNEPAOLOitaMVETM19210142:16:09+1:08:09
815748STEFANIGIUSEPPEPISA ROAD RUNNERS CLUB ASDitaMASSM58510152:16:09+1:08:09
2011099ROYERMANUELLARUNCARDfraFASSF16610162:16:17+1:00:08
2021021PISANOBARBARARUNCARDitaFASSF16710172:16:28+1:00:20
816158GARUGLIERILORENZORUNCARDitaMASSM58610182:17:01+1:09:01
81735COLONAROCCO SILVIOG.POD. DUEMILA RUFFANOitaMARGM3610192:17:05+1:09:05
818298BEZZIGINORUNCARDitaMARGM3710202:18:02+1:10:02
819619GIUNTOLIPAOLOGRUPPO PODISTICO ROSSINIitaMARGM3810212:18:30+1:10:30
82053CAPELLIROBERTORUNCARDitaMASSM58710222:18:36+1:10:37
2031123RICCOLORELLAGRUPPO CITTA' DI GENOVAitaFLAD-A3110232:19:17+1:03:09
821191CAVALLIGIACOMORUNCARDitaMASSM58810242:19:46+1:11:46
2041029PERTILEVALENTINARUNCARDitaFASSF16810252:20:12+1:04:04
2051208ALDERIGHIELISABETTAPISA ROAD RUNNERS CLUB ASDitaFASSF16910262:21:44+1:05:35
2061100ROYERANNICKRUNCARDfraFLAD-B610272:21:46+1:05:38
2071126TRAMBUSTIILARIARUNCARDitaFASSF17010282:21:53+1:05:44
822144BARSACCHILORENZOHAPPY RUNNER CLUBitaMASSM58910292:22:05+1:14:05
2081044DE LUCAEMANUELAHAPPY RUNNER CLUBitaFASSF17110302:22:05+1:05:57
2091180FLORIANANTONELLARUNCARDitaFLAD-A3210312:22:48+1:06:40
823650BIANCHIMARTINORUNCARDitaMVETM19310322:22:58+1:14:58
824437EDENGARYRUNCARDphiMASSM59010332:22:59+1:14:59
825724IANNACCONENICOLAPISA ROAD RUNNERS CLUB ASDitaMVETM19410342:25:44+1:17:44
826590SCARFIRENATOPOD.OSPEDALIERI PISAitaMVETM19510352:26:01+1:18:01
2101256FAVILLIRAFFAELLARUNCARDitaFASSF17210362:28:35+1:12:27
2111023GOSISIMONARUNCARDitaFASSF17310372:29:31+1:13:23
2121236PUGIIRENEPOL. CASTELLO LARI 1989itaFASSF17410382:29:47+1:13:38
2131237SENESIMARZIARUNCARDitaFASSF17510392:29:47+1:13:38
2141238BURGALASSICHIARARUNCARDitaFASSF17610402:29:47+1:13:38
827623CONTUSSICLAUDIOGRUPPO PODISTICO ROSSINIitaMVETM19610412:32:59+1:24:59
828640GIUMELLIANDREAA.S.D. GOLFO DEI POETI ARCIGNIitaMASSM59110422:33:03+1:25:03
2151163CORRADINILIANAGRUPPO PODISTICO ROSSINIitaFLAD-A3310432:33:08+1:17:00
829602BALLANTINIVALTERGRUPPO PODISTICO ROSSINIitaMVETM19710442:33:10+1:25:11
830611ARRIGONIANGIOLOGRUPPO PODISTICO ROSSINIitaMARGM3910452:33:11+1:25:12
831630ENGHERSAMUEL GARINEIGRUPPO PODISTICO ROSSINIitaM10462:33:12+1:25:12
832609MATARESIFEDERICOGRUPPO PODISTICO ROSSINIitaMASSM59210472:33:12+1:25:12
2161056FRANZINIROMANAANDREA E I CORSARI DELLA MARATONAitaFLAD-B710482:33:12+1:17:04
833626DEL CARLOCORRADOGRUPPO PODISTICO ROSSINIitaMVETM19810492:33:13+1:25:13
834628PIERINIRINALDOGRUPPO PODISTICO ROSSINIitaMASSM59310502:33:13+1:25:14
835537MOLEAGIUSEPPERUNCARDitaMARGM4010512:33:15+1:25:15
836608BARTALINILEONARDOGRUPPO PODISTICO ROSSINIitaMASSM59410522:33:15+1:25:15
837627ANDREOZZIMASSIMOGRUPPO PODISTICO ROSSINIitaMASSM59510532:33:16+1:25:16
2171020RUSSOROBERTARUNCARDitaFASSF17710542:33:17+1:17:08
838343GRAMUGLIAGIUSEPPEMARATHON CREMONAitaMASSM59610552:33:17+1:25:17
839513FELLAGABRIELEASD ATHLETIC TERNIitaMASSM59710562:33:17+1:25:17
840603MARCHETTICLAUDIOGRUPPO PODISTICO ROSSINIitaMARGM4110572:33:18+1:25:18
84154MAFFINIGIANCARLORUNCARDitaMVETM19910582:33:20+1:25:20
842515BELTRAMELLOSTEFANOATL. VERBANOitaMASSM59810592:33:21+1:25:21
84355TRABUCCHIGEROLAMO3 MORI RUNNING TEAM ASDitaMVETM20010602:33:21+1:25:21
84457RIZZILUIGIRUNCARDitaMVETM20110612:33:21+1:25:21
845612ADAMILUCAGRUPPO PODISTICO ROSSINIitaMASSM59910622:33:22+1:25:23
846617PALLOTTIALESSANDROGRUPPO PODISTICO ROSSINIitaMASSM60010632:33:23+1:25:23
84756DI MUZIOALBERTORUNCARDitaMVETM20210642:33:23+1:25:24
848624NICOLIALESSANDROGRUPPO PODISTICO ROSSINIitaMASSM60110652:33:24+1:25:24
2181225GIUSTIMARIA CRISTINAPISA ROAD RUNNERS CLUB ASDitaFLAD-A3410662:34:35+1:18:27
2191203PUCCIDANIELAPISA ROAD RUNNERS CLUB ASDitaFASSF17810672:34:35+1:18:27
849743SBRANAALESSIOPISA ROAD RUNNERS CLUB ASDitaMASSM60210682:34:36+1:26:36
850676ANTONACCIDOMENICOPOD.OSPEDALIERI PISAitaMASSM60310692:34:51+1:26:51
851907BENVENUTIPIERINOG.S. MAIANOitaMOROM410702:35:37+1:27:37
2201025FASCETTICINZIAGRUPPO PODISTICO ROSSINIitaFASSF17910712:36:04+1:19:56
2211124RONCONETIZIANAGRUPPO CITTA' DI GENOVAitaFLAD-A3510722:42:35+1:26:27
2221098FIORETTICRISTINARUNCARDitaFLAD-A3610732:44:30+1:28:21
2231096DANDOLI MARCHETTISTEFANIAPISA ROAD RUNNERS CLUB ASDitaFLAD-A3710742:46:55+1:30:46
2241266CARBONIFRANCESCARUNCARDitaFASSF18010752:53:03+1:36:55
2251232BORGHESIIRENERUNCARDitaFASSF18110762:53:03+1:36:55
2261088DE GRANDISIOLERUNCARDitaFLAD-B810772:53:32+1:37:24